Time,TemperatureF,DewpointF,PressureIn,WindDirection,WindDirectionDegrees,WindSpeedMPH,WindSpeedGustMPH,Humidity,HourlyPrecipIn,Conditions,Clouds,dailyrainin,SoftwareType,DateUTC
2013-01-15 00:01:00,34.8,26.7,30.15,NW,312,1.0,7.0,72,0.00,,,0.01,Wunderground v.1.15,2013-01-15 05:01:00,
2013-01-15 00:02:00,34.8,26.4,30.15,WNW,298,1.0,7.0,71,0.00,,,0.01,Wunderground v.1.15,2013-01-15 05:02:00,
2013-01-15 00:07:00,34.9,26.4,30.15,NW,312,2.0,7.0,71,0.00,,,0.01,Wunderground v.1.15,2013-01-15 05:07:00,
2013-01-15 00:09:00,34.9,26.4,30.15,WNW,296,3.0,7.0,71,0.00,,,0.01,Wunderground v.1.15,2013-01-15 05:09:00,
2013-01-15 00:11:00,34.9,26.4,30.15,NW,316,3.0,7.0,71,0.00,,,0.01,Wunderground v.1.15,2013-01-15 05:11:00,
2013-01-15 00:14:00,35.0,26.2,30.15,NW,325,4.0,7.0,70,0.00,,,0.01,Wunderground v.1.15,2013-01-15 05:14:00,
2013-01-15 00:15:00,35.0,26.2,30.15,NW,305,4.0,7.0,70,0.00,,,0.01,Wunderground v.1.15,2013-01-15 05:15:00,
2013-01-15 00:17:00,35.0,26.2,30.15,NW,309,4.0,7.0,70,0.00,,,0.01,Wunderground v.1.15,2013-01-15 05:17:00,
2013-01-15 00:20:00,35.0,25.9,30.15,NNW,340,4.0,7.0,69,0.00,,,0.01,Wunderground v.1.15,2013-01-15 05:20:00,
2013-01-15 00:21:00,35.1,25.9,30.15,NW,314,4.0,7.0,69,0.00,,,0.01,Wunderground v.1.15,2013-01-15 05:21:00,
2013-01-15 00:22:00,35.1,25.9,30.15,NW,315,4.0,7.0,69,0.00,,,0.01,Wunderground v.1.15,2013-01-15 05:22:00,
2013-01-15 00:23:00,35.1,25.9,30.15,WNW,301,4.0,7.0,69,0.00,,,0.01,Wunderground v.1.15,2013-01-15 05:23:00,
2013-01-15 00:26:00,35.1,25.9,30.14,NNW,330,5.0,7.0,69,0.00,,,0.01,Wunderground v.1.15,2013-01-15 05:26:00,
2013-01-15 00:27:00,35.1,25.9,30.14,NW,308,5.0,7.0,69,0.00,,,0.01,Wunderground v.1.15,2013-01-15 05:27:00,
2013-01-15 00:28:00,35.2,26.0,30.15,NNW,327,5.0,7.0,69,0.00,,,0.01,Wunderground v.1.15,2013-01-15 05:28:00,
2013-01-15 00:33:00,35.1,25.6,30.16,NNW,337,5.0,7.0,68,0.00,,,0.01,Wunderground v.1.15,2013-01-15 05:33:00,
2013-01-15 00:34:00,35.1,25.9,30.16,NW,319,4.0,7.0,69,0.00,,,0.01,Wunderground v.1.15,2013-01-15 05:34:00,
2013-01-15 00:37:00,35.1,25.6,30.15,NW,311,4.0,7.0,68,0.00,,,0.01,Wunderground v.1.15,2013-01-15 05:37:00,
2013-01-15 00:38:00,35.1,25.6,30.14,NW,322,4.0,7.0,68,0.00,,,0.01,Wunderground v.1.15,2013-01-15 05:38:00,
2013-01-15 00:39:00,35.1,25.6,30.15,NNW,327,4.0,7.0,68,0.00,,,0.01,Wunderground v.1.15,2013-01-15 05:39:00,
2013-01-15 00:42:00,35.1,25.6,30.15,WNW,286,4.0,7.0,68,0.00,,,0.01,Wunderground v.1.15,2013-01-15 05:42:00,
2013-01-15 00:44:00,35.2,25.7,30.15,West,281,5.0,7.0,68,0.00,,,0.01,Wunderground v.1.15,2013-01-15 05:44:00,
2013-01-15 00:45:00,35.1,25.6,30.15,NW,317,5.0,10.0,68,0.00,,,0.01,Wunderground v.1.15,2013-01-15 05:45:00,
2013-01-15 00:47:00,35.1,25.6,30.16,NW,318,5.0,10.0,68,0.00,,,0.01,Wunderground v.1.15,2013-01-15 05:47:00,
2013-01-15 00:50:00,35.1,25.6,30.16,NNW,345,5.0,5.0,68,0.00,,,0.01,Wunderground v.1.15,2013-01-15 05:50:00,
2013-01-15 00:51:00,35.1,25.6,30.16,NNW,346,5.0,9.0,68,0.00,,,0.01,Wunderground v.1.15,2013-01-15 05:51:00,
2013-01-15 00:55:00,35.1,25.6,30.16,NNW,340,5.0,9.0,68,0.00,,,0.01,Wunderground v.1.15,2013-01-15 05:55:00,
2013-01-15 00:56:00,35.1,25.6,30.16,NNW,346,5.0,9.0,68,0.00,,,0.01,Wunderground v.1.15,2013-01-15 05:56:00,
2013-01-15 00:57:00,35.1,25.6,30.16,NW,317,6.0,9.0,68,0.00,,,0.01,Wunderground v.1.15,2013-01-15 05:57:00,
2013-01-15 00:58:00,35.1,25.6,30.16,NW,324,5.0,9.0,68,0.00,,,0.01,Wunderground v.1.15,2013-01-15 05:58:00,
2013-01-15 01:01:00,35.0,25.5,30.17,NW,323,5.0,10.0,68,0.00,,,0.01,Wunderground v.1.15,2013-01-15 06:01:00,
2013-01-15 01:02:00,35.0,25.5,30.17,NNW,334,4.0,10.0,68,0.00,,,0.01,Wunderground v.1.15,2013-01-15 06:02:00,
2013-01-15 01:04:00,35.0,25.5,30.16,NW,326,4.0,10.0,68,0.00,,,0.01,Wunderground v.1.15,2013-01-15 06:04:00,
2013-01-15 01:07:00,35.1,25.6,30.16,NW,318,4.0,10.0,68,0.00,,,0.01,Wunderground v.1.15,2013-01-15 06:07:00,
2013-01-15 01:08:00,35.1,25.6,30.16,NNW,339,4.0,10.0,68,0.00,,,0.01,Wunderground v.1.15,2013-01-15 06:08:00,
2013-01-15 01:10:00,35.1,25.2,30.16,WNW,295,4.0,4.0,67,0.00,,,0.01,Wunderground v.1.15,2013-01-15 06:10:00,
2013-01-15 01:14:00,35.1,25.6,30.15,NW,324,3.0,10.0,68,0.00,,,0.01,Wunderground v.1.15,2013-01-15 06:14:00,
2013-01-15 01:15:00,35.1,25.6,30.15,NNW,334,3.0,10.0,68,0.00,,,0.01,Wunderground v.1.15,2013-01-15 06:15:00,
2013-01-15 01:16:00,35.0,25.5,30.15,NNW,337,3.0,10.0,68,0.00,,,0.01,Wunderground v.1.15,2013-01-15 06:16:00,
2013-01-15 01:17:00,35.1,25.2,30.15,NW,325,3.0,10.0,67,0.00,,,0.01,Wunderground v.1.15,2013-01-15 06:17:00,
2013-01-15 01:19:00,35.1,25.6,30.16,NNW,331,2.0,10.0,68,0.00,,,0.01,Wunderground v.1.15,2013-01-15 06:19:00,
2013-01-15 01:20:00,35.0,25.5,30.16,NNW,331,2.0,10.0,68,0.00,,,0.01,Wunderground v.1.15,2013-01-15 06:20:00,
2013-01-15 01:22:00,35.0,25.5,30.17,NNW,331,2.0,10.0,68,0.00,,,0.01,Wunderground v.1.15,2013-01-15 06:22:00,
2013-01-15 01:25:00,35.0,25.5,30.16,NNW,348,2.0,10.0,68,0.00,,,0.01,Wunderground v.1.15,2013-01-15 06:25:00,
2013-01-15 01:26:00,35.0,25.5,30.16,NNW,348,1.0,10.0,68,0.00,,,0.01,Wunderground v.1.15,2013-01-15 06:26:00,
2013-01-15 01:27:00,35.0,25.5,30.15,North,350,1.0,10.0,68,0.00,,,0.01,Wunderground v.1.15,2013-01-15 06:27:00,
2013-01-15 01:31:00,35.0,25.5,30.16,NNE,13,0.0,10.0,68,0.00,,,0.01,Wunderground v.1.15,2013-01-15 06:31:00,
2013-01-15 01:33:00,35.0,25.5,30.15,NNE,13,0.0,10.0,68,0.00,,,0.00,Wunderground v.1.15,2013-01-15 06:33:00,
2013-01-15 01:34:00,35.0,25.5,30.15,NNE,21,0.0,10.0,68,0.00,,,0.00,Wunderground v.1.15,2013-01-15 06:34:00,
2013-01-15 01:36:00,35.0,25.5,30.15,NNE,21,0.0,10.0,68,0.00,,,0.00,Wunderground v.1.15,2013-01-15 06:36:00,
2013-01-15 01:39:00,35.0,25.5,30.14,NNE,21,0.0,10.0,68,0.00,,,0.00,Wunderground v.1.15,2013-01-15 06:39:00,
2013-01-15 01:41:00,35.0,25.5,30.14,NNE,21,0.0,10.0,68,0.00,,,0.00,Wunderground v.1.15,2013-01-15 06:41:00,
2013-01-15 01:43:00,35.0,25.9,30.14,NNE,21,0.0,10.0,69,0.00,,,0.00,Wunderground v.1.15,2013-01-15 06:43:00,
2013-01-15 01:45:00,35.0,25.9,30.14,NNE,21,0.0,10.0,69,0.00,,,0.00,Wunderground v.1.15,2013-01-15 06:45:00,
2013-01-15 01:48:00,34.9,25.8,30.14,NNE,21,0.0,10.0,69,0.00,,,0.00,Wunderground v.1.15,2013-01-15 06:48:00,
2013-01-15 01:50:00,34.9,25.8,30.14,NNE,21,0.0,10.0,69,0.00,,,0.00,Wunderground v.1.15,2013-01-15 06:50:00,
2013-01-15 01:51:00,34.9,25.8,30.14,NNE,21,0.0,10.0,69,0.00,,,0.00,Wunderground v.1.15,2013-01-15 06:51:00,
2013-01-15 01:53:00,34.9,25.8,30.13,NE,43,0.0,10.0,69,0.00,,,0.00,Wunderground v.1.15,2013-01-15 06:53:00,
2013-01-15 01:55:00,34.9,26.1,30.14,East,92,0.0,10.0,70,0.00,,,0.00,Wunderground v.1.15,2013-01-15 06:55:00,
2013-01-15 01:58:00,34.8,26.0,30.13,SE,126,1.0,10.0,70,0.00,,,0.00,Wunderground v.1.15,2013-01-15 06:58:00,
2013-01-15 01:59:00,34.8,26.0,30.13,SE,126,1.0,10.0,70,0.00,,,0.00,Wunderground v.1.15,2013-01-15 06:59:00,
2013-01-15 02:00:00,34.7,25.6,30.13,SE,126,1.0,1.0,69,0.00,,,0.00,Wunderground v.1.15,2013-01-15 07:00:00,
2013-01-15 02:03:00,34.7,25.6,30.13,SE,126,1.0,3.0,69,0.00,,,0.00,Wunderground v.1.15,2013-01-15 07:03:00,
2013-01-15 02:07:00,34.6,25.8,30.13,SE,126,0.0,3.0,70,0.00,,,0.00,Wunderground v.1.15,2013-01-15 07:07:00,
2013-01-15 02:08:00,34.6,25.8,30.13,SE,126,0.0,3.0,70,0.00,,,0.00,Wunderground v.1.15,2013-01-15 07:08:00,
2013-01-15 02:09:00,34.6,25.8,30.12,SE,126,0.0,3.0,70,0.00,,,0.00,Wunderground v.1.15,2013-01-15 07:09:00,
2013-01-15 02:12:00,34.5,26.1,30.12,SE,126,0.0,3.0,71,0.00,,,0.00,Wunderground v.1.15,2013-01-15 07:12:00,
2013-01-15 02:14:00,34.5,26.4,30.12,SE,126,0.0,3.0,72,0.00,,,0.00,Wunderground v.1.15,2013-01-15 07:14:00,
2013-01-15 02:15:00,34.5,26.4,30.13,SE,126,0.0,3.0,72,0.00,,,0.00,Wunderground v.1.15,2013-01-15 07:15:00,
2013-01-15 02:17:00,34.4,26.6,30.13,SE,126,0.0,3.0,73,0.00,,,0.00,Wunderground v.1.15,2013-01-15 07:17:00,
2013-01-15 02:20:00,34.3,26.2,30.13,SE,126,0.0,3.0,72,0.00,,,0.00,Wunderground v.1.15,2013-01-15 07:20:00,
2013-01-15 02:22:00,34.2,26.1,30.13,SE,126,0.0,3.0,72,0.00,,,0.00,Wunderground v.1.15,2013-01-15 07:22:00,
2013-01-15 02:24:00,34.1,26.3,30.13,SE,126,0.0,3.0,73,0.00,,,0.00,Wunderground v.1.15,2013-01-15 07:24:00,
2013-01-15 02:27:00,34.1,26.0,30.13,SE,126,0.0,3.0,72,0.00,,,0.00,Wunderground v.1.15,2013-01-15 07:27:00,
2013-01-15 02:28:00,34.1,26.0,30.13,SE,126,0.0,3.0,72,0.00,,,0.00,Wunderground v.1.15,2013-01-15 07:28:00,
2013-01-15 02:29:00,34.0,25.9,30.13,SE,126,0.0,3.0,72,0.00,,,0.00,Wunderground v.1.15,2013-01-15 07:29:00,
2013-01-15 02:31:00,34.0,25.9,30.13,SE,126,0.0,3.0,72,0.00,,,0.00,Wunderground v.1.15,2013-01-15 07:31:00,
2013-01-15 02:33:00,34.0,26.3,30.14,SE,126,0.0,3.0,73,0.00,,,0.00,Wunderground v.1.15,2013-01-15 07:33:00,
2013-01-15 02:35:00,33.9,25.8,30.15,SE,126,0.0,3.0,72,0.00,,,0.00,Wunderground v.1.15,2013-01-15 07:35:00,
2013-01-15 02:37:00,33.9,25.8,30.14,North,360,0.0,3.0,72,0.00,,,0.00,Wunderground v.1.15,2013-01-15 07:37:00,
2013-01-15 02:39:00,33.9,25.8,30.14,NNW,339,1.0,5.0,72,0.00,,,0.00,Wunderground v.1.15,2013-01-15 07:39:00,
2013-01-15 02:41:00,33.9,25.8,30.14,NNW,341,1.0,3.0,72,0.00,,,0.00,Wunderground v.1.15,2013-01-15 07:41:00,
2013-01-15 02:42:00,33.9,25.8,30.13,NNW,341,1.0,3.0,72,0.00,,,0.00,Wunderground v.1.15,2013-01-15 07:42:00,
2013-01-15 02:43:00,33.9,25.8,30.13,NNW,341,1.0,3.0,72,0.00,,,0.00,Wunderground v.1.15,2013-01-15 07:43:00,
2013-01-15 02:44:00,33.9,25.8,30.12,NNW,341,1.0,3.0,72,0.00,,,0.00,Wunderground v.1.15,2013-01-15 07:44:00,
2013-01-15 02:47:00,33.8,25.7,30.12,NNW,341,1.0,3.0,72,0.00,,,0.00,Wunderground v.1.15,2013-01-15 07:47:00,
2013-01-15 02:49:00,33.8,25.7,30.11,NNW,341,0.0,3.0,72,0.00,,,0.00,Wunderground v.1.15,2013-01-15 07:49:00,
2013-01-15 02:50:00,33.8,25.7,30.11,NNW,341,0.0,3.0,72,0.00,,,0.00,Wunderground v.1.15,2013-01-15 07:50:00,
2013-01-15 02:52:00,33.8,25.7,30.11,NNW,341,0.0,3.0,72,0.00,,,0.00,Wunderground v.1.15,2013-01-15 07:52:00,
2013-01-15 02:55:00,33.8,25.7,30.11,NNW,341,0.0,3.0,72,0.00,,,0.00,Wunderground v.1.15,2013-01-15 07:55:00,
2013-01-15 02:56:00,33.9,25.8,30.11,NNW,341,0.0,3.0,72,0.00,,,0.00,Wunderground v.1.15,2013-01-15 07:56:00,
2013-01-15 02:57:00,33.9,25.8,30.11,NNW,341,0.0,3.0,72,0.00,,,0.00,Wunderground v.1.15,2013-01-15 07:57:00,
2013-01-15 03:00:00,33.9,26.2,30.11,NNW,341,0.0,6.0,73,0.00,,,0.00,Wunderground v.1.15,2013-01-15 08:00:00,
2013-01-15 03:02:00,33.9,26.2,30.11,NNW,341,0.0,6.0,73,0.00,,,0.00,Wunderground v.1.15,2013-01-15 08:02:00,
2013-01-15 03:07:00,33.8,26.1,30.13,NNW,341,0.0,6.0,73,0.00,,,0.00,Wunderground v.1.15,2013-01-15 08:07:00,
2013-01-15 03:08:00,33.7,26.0,30.13,NNW,341,0.0,6.0,73,0.00,,,0.00,Wunderground v.1.15,2013-01-15 08:08:00,
2013-01-15 03:10:00,33.6,26.2,30.12,NNW,341,0.0,6.0,74,0.00,,,0.00,Wunderground v.1.15,2013-01-15 08:10:00,
2013-01-15 03:11:00,33.6,26.2,30.12,NNW,341,0.0,6.0,74,0.00,,,0.00,Wunderground v.1.15,2013-01-15 08:11:00,
2013-01-15 03:15:00,33.6,26.2,30.12,NNW,341,0.0,6.0,74,0.00,,,0.00,Wunderground v.1.15,2013-01-15 08:15:00,
2013-01-15 03:16:00,33.5,26.1,30.13,NNW,341,0.0,6.0,74,0.00,,,0.00,Wunderground v.1.15,2013-01-15 08:16:00,
2013-01-15 03:17:00,33.6,25.9,30.12,NNW,341,0.0,6.0,73,0.00,,,0.00,Wunderground v.1.15,2013-01-15 08:17:00,
2013-01-15 03:19:00,33.5,25.8,30.12,NNW,341,0.0,6.0,73,0.00,,,0.00,Wunderground v.1.15,2013-01-15 08:19:00,
2013-01-15 03:20:00,33.5,25.8,30.12,NNW,341,0.0,6.0,73,0.00,,,0.00,Wunderground v.1.15,2013-01-15 08:20:00,
2013-01-15 03:22:00,33.5,25.4,30.11,NNW,341,0.0,6.0,72,0.00,,,0.00,Wunderground v.1.15,2013-01-15 08:22:00,
2013-01-15 03:23:00,33.5,25.8,30.11,NNW,341,0.0,6.0,73,0.00,,,0.00,Wunderground v.1.15,2013-01-15 08:23:00,
2013-01-15 03:28:00,33.5,26.1,30.11,NNW,341,0.0,6.0,74,0.00,,,0.00,Wunderground v.1.15,2013-01-15 08:28:00,
2013-01-15 03:29:00,33.5,26.4,30.11,NNW,341,0.0,6.0,75,0.00,,,0.00,Wunderground v.1.15,2013-01-15 08:29:00,
2013-01-15 03:30:00,33.5,26.4,30.11,NNW,341,0.0,6.0,75,0.00,,,0.00,Wunderground v.1.15,2013-01-15 08:30:00,
2013-01-15 03:32:00,33.5,26.4,30.11,NNW,341,0.0,6.0,75,0.00,,,0.00,Wunderground v.1.15,2013-01-15 08:32:00,
2013-01-15 03:35:00,33.5,26.1,30.11,NNW,341,0.0,6.0,74,0.00,,,0.00,Wunderground v.1.15,2013-01-15 08:35:00,
2013-01-15 03:37:00,33.4,26.0,30.11,NNW,341,0.0,6.0,74,0.00,,,0.00,Wunderground v.1.15,2013-01-15 08:37:00,
2013-01-15 03:38:00,33.4,26.0,30.12,NNW,341,0.0,6.0,74,0.00,,,0.00,Wunderground v.1.15,2013-01-15 08:38:00,
2013-01-15 03:40:00,33.4,26.0,30.12,NNW,341,0.0,6.0,74,0.00,,,0.00,Wunderground v.1.15,2013-01-15 08:40:00,
2013-01-15 03:43:00,33.3,25.9,30.12,NNW,341,0.0,6.0,74,0.00,,,0.00,Wunderground v.1.15,2013-01-15 08:43:00,
2013-01-15 03:46:00,33.3,25.6,30.11,NNW,341,0.0,6.0,73,0.00,,,0.00,Wunderground v.1.15,2013-01-15 08:46:00,
2013-01-15 03:49:00,33.3,25.9,30.11,NNW,341,0.0,6.0,74,0.00,,,0.00,Wunderground v.1.15,2013-01-15 08:49:00,
2013-01-15 03:50:00,33.3,25.9,30.11,NNW,341,0.0,6.0,74,0.00,,,0.00,Wunderground v.1.15,2013-01-15 08:50:00,
2013-01-15 03:51:00,33.3,25.9,30.11,NNW,341,0.0,6.0,74,0.00,,,0.00,Wunderground v.1.15,2013-01-15 08:51:00,
2013-01-15 03:52:00,33.3,25.9,30.11,NNW,341,0.0,6.0,74,0.00,,,0.00,Wunderground v.1.15,2013-01-15 08:52:00,
2013-01-15 03:55:00,33.3,25.9,30.11,NNW,341,0.0,6.0,74,0.00,,,0.00,Wunderground v.1.15,2013-01-15 08:55:00,
2013-01-15 03:57:00,33.2,25.8,30.11,NNW,341,0.0,6.0,74,0.00,,,0.00,Wunderground v.1.15,2013-01-15 08:57:00,
2013-01-15 04:00:00,33.1,25.7,30.11,NNW,341,0.0,0.0,74,0.00,,,0.00,Wunderground v.1.15,2013-01-15 09:00:00,
2013-01-15 04:01:00,33.1,25.7,30.11,NNW,341,0.0,0.0,74,0.00,,,0.00,Wunderground v.1.15,2013-01-15 09:01:00,
2013-01-15 04:02:00,33.0,25.6,30.11,NNW,341,0.0,0.0,74,0.00,,,0.00,Wunderground v.1.15,2013-01-15 09:02:00,
2013-01-15 04:04:00,33.0,25.3,30.11,NNW,341,0.0,0.0,73,0.00,,,0.00,Wunderground v.1.15,2013-01-15 09:04:00,
2013-01-15 04:07:00,32.9,25.8,30.11,NNW,341,0.0,0.0,75,0.00,,,0.00,Wunderground v.1.15,2013-01-15 09:07:00,
2013-01-15 04:09:00,32.8,25.7,30.11,NNW,341,0.0,0.0,75,0.00,,,0.00,Wunderground v.1.15,2013-01-15 09:09:00,
2013-01-15 04:12:00,32.6,25.9,30.11,NNW,341,0.0,0.0,76,0.00,,,0.00,Wunderground v.1.15,2013-01-15 09:12:00,
2013-01-15 04:13:00,32.5,25.8,30.11,NNW,341,0.0,0.0,76,0.00,,,0.00,Wunderground v.1.15,2013-01-15 09:13:00,
2013-01-15 04:14:00,32.5,25.8,30.11,NNW,341,0.0,0.0,76,0.00,,,0.00,Wunderground v.1.15,2013-01-15 09:14:00,
2013-01-15 04:17:00,32.4,26.0,30.11,NNW,341,0.0,0.0,77,0.00,,,0.00,Wunderground v.1.15,2013-01-15 09:17:00,
2013-01-15 04:20:00,32.2,25.8,30.11,NNW,341,0.0,0.0,77,0.00,,,0.00,Wunderground v.1.15,2013-01-15 09:20:00,
2013-01-15 04:21:00,32.2,25.8,30.11,NNW,341,0.0,0.0,77,0.00,,,0.00,Wunderground v.1.15,2013-01-15 09:21:00,
2013-01-15 04:23:00,32.1,25.7,30.11,NNW,341,0.0,0.0,77,0.00,,,0.00,Wunderground v.1.15,2013-01-15 09:23:00,
2013-01-15 04:27:00,32.0,25.6,30.11,NNW,341,0.0,0.0,77,0.00,,,0.00,Wunderground v.1.15,2013-01-15 09:27:00,
2013-01-15 04:28:00,32.0,25.6,30.11,NNW,341,0.0,0.0,77,0.00,,,0.00,Wunderground v.1.15,2013-01-15 09:28:00,
2013-01-15 04:32:00,31.9,25.5,30.11,NNW,341,0.0,0.0,77,0.00,,,0.00,Wunderground v.1.15,2013-01-15 09:32:00,
2013-01-15 04:33:00,31.9,25.5,30.11,NNW,341,0.0,0.0,77,0.00,,,0.00,Wunderground v.1.15,2013-01-15 09:33:00,
2013-01-15 04:36:00,31.9,25.5,30.11,NNW,341,0.0,0.0,77,0.00,,,0.00,Wunderground v.1.15,2013-01-15 09:36:00,
2013-01-15 04:37:00,31.9,25.5,30.11,NNW,341,0.0,0.0,77,0.00,,,0.00,Wunderground v.1.15,2013-01-15 09:37:00,
2013-01-15 04:39:00,31.8,25.4,30.11,NNW,341,0.0,0.0,77,0.00,,,0.00,Wunderground v.1.15,2013-01-15 09:39:00,
2013-01-15 04:41:00,31.7,25.3,30.11,NNW,341,0.0,0.0,77,0.00,,,0.00,Wunderground v.1.15,2013-01-15 09:41:00,
2013-01-15 04:44:00,31.7,25.3,30.11,NNW,341,0.0,0.0,77,0.00,,,0.00,Wunderground v.1.15,2013-01-15 09:44:00,
2013-01-15 04:45:00,31.6,25.2,30.11,NNW,341,0.0,0.0,77,0.00,,,0.00,Wunderground v.1.15,2013-01-15 09:45:00,
2013-01-15 04:47:00,31.6,25.2,30.11,NNW,341,0.0,0.0,77,0.00,,,0.00,Wunderground v.1.15,2013-01-15 09:47:00,
2013-01-15 04:50:00,31.5,25.1,30.11,NNW,341,0.0,0.0,77,0.00,,,0.00,Wunderground v.1.15,2013-01-15 09:50:00,
2013-01-15 04:53:00,31.5,25.4,30.11,NNW,341,0.0,0.0,78,0.00,,,0.00,Wunderground v.1.15,2013-01-15 09:53:00,
2013-01-15 04:54:00,31.4,25.3,30.11,NNW,341,0.0,0.0,78,0.00,,,0.00,Wunderground v.1.15,2013-01-15 09:54:00,
2013-01-15 04:55:00,31.4,25.3,30.11,NNW,341,0.0,0.0,78,0.00,,,0.00,Wunderground v.1.15,2013-01-15 09:55:00,
2013-01-15 05:00:00,31.2,25.1,30.10,NNW,341,0.0,0.0,78,0.00,,,0.00,Wunderground v.1.15,2013-01-15 10:00:00,
2013-01-15 05:01:00,31.2,25.4,30.10,NNW,341,0.0,0.0,79,0.00,,,0.00,Wunderground v.1.15,2013-01-15 10:01:00,
2013-01-15 05:03:00,31.2,25.4,30.10,NNW,341,0.0,0.0,79,0.00,,,0.00,Wunderground v.1.15,2013-01-15 10:03:00,
2013-01-15 05:05:00,31.1,25.7,30.10,NNW,341,0.0,0.0,80,0.00,,,0.00,Wunderground v.1.15,2013-01-15 10:05:00,
2013-01-15 05:06:00,31.1,25.7,30.10,NNW,341,0.0,0.0,80,0.00,,,0.00,Wunderground v.1.15,2013-01-15 10:06:00,
2013-01-15 05:07:00,31.1,25.7,30.10,NNW,341,0.0,0.0,80,0.00,,,0.00,Wunderground v.1.15,2013-01-15 10:07:00,
2013-01-15 05:10:00,31.0,25.9,30.10,NNW,341,0.0,0.0,81,0.00,,,0.00,Wunderground v.1.15,2013-01-15 10:10:00,
2013-01-15 05:11:00,31.0,26.1,30.10,NNW,341,0.0,0.0,82,0.00,,,0.00,Wunderground v.1.15,2013-01-15 10:11:00,
2013-01-15 05:15:00,30.8,26.2,30.10,NNW,341,0.0,0.0,83,0.00,,,0.00,Wunderground v.1.15,2013-01-15 10:15:00,
2013-01-15 05:16:00,30.9,26.3,30.10,NNW,341,0.0,0.0,83,0.00,,,0.00,Wunderground v.1.15,2013-01-15 10:16:00,
2013-01-15 05:17:00,30.8,26.2,30.10,NNW,341,0.0,0.0,83,0.00,,,0.00,Wunderground v.1.15,2013-01-15 10:17:00,
2013-01-15 05:19:00,30.8,26.2,30.10,NNW,341,0.0,0.0,83,0.00,,,0.00,Wunderground v.1.15,2013-01-15 10:19:00,
2013-01-15 05:22:00,30.7,26.1,30.09,NNW,341,0.0,0.0,83,0.00,,,0.00,Wunderground v.1.15,2013-01-15 10:22:00,
2013-01-15 05:23:00,30.7,26.1,30.09,NNW,341,0.0,0.0,83,0.00,,,0.00,Wunderground v.1.15,2013-01-15 10:23:00,
2013-01-15 05:24:00,30.6,26.1,30.10,NNW,341,0.0,0.0,83,0.00,,,0.00,Wunderground v.1.15,2013-01-15 10:24:00,
2013-01-15 05:28:00,30.4,25.9,30.10,NNW,341,0.0,0.0,83,0.00,,,0.00,Wunderground v.1.15,2013-01-15 10:28:00,
2013-01-15 05:30:00,30.3,26.0,30.10,NNW,341,0.0,0.0,84,0.00,,,0.00,Wunderground v.1.15,2013-01-15 10:30:00,
2013-01-15 05:31:00,30.2,25.9,30.10,NNW,341,0.0,0.0,84,0.00,,,0.00,Wunderground v.1.15,2013-01-15 10:31:00,
2013-01-15 05:33:00,30.1,25.8,30.10,NNW,341,0.0,0.0,84,0.00,,,0.00,Wunderground v.1.15,2013-01-15 10:33:00,
2013-01-15 05:35:00,29.9,25.7,30.10,NNW,341,0.0,0.0,84,0.00,,,0.00,Wunderground v.1.15,2013-01-15 10:35:00,
2013-01-15 05:36:00,29.8,25.8,30.11,NNW,341,0.0,0.0,85,0.00,,,0.00,Wunderground v.1.15,2013-01-15 10:36:00,
2013-01-15 05:37:00,29.7,25.7,30.11,NNW,341,0.0,0.0,85,0.00,,,0.00,Wunderground v.1.15,2013-01-15 10:37:00,
2013-01-15 05:40:00,29.4,25.7,30.11,NNW,341,0.0,0.0,86,0.00,,,0.00,Wunderground v.1.15,2013-01-15 10:40:00,
2013-01-15 05:44:00,29.2,25.5,30.12,NNW,341,0.0,1.0,86,0.00,,,0.00,Wunderground v.1.15,2013-01-15 10:44:00,
2013-01-15 05:45:00,29.1,25.4,30.13,NNW,341,0.0,1.0,86,0.00,,,0.00,Wunderground v.1.15,2013-01-15 10:45:00,
2013-01-15 05:49:00,28.9,25.5,30.13,NNW,341,0.0,1.0,87,0.00,,,0.00,Wunderground v.1.15,2013-01-15 10:49:00,
2013-01-15 05:51:00,28.8,25.4,30.14,NNW,341,0.0,0.0,87,0.00,,,0.00,Wunderground v.1.15,2013-01-15 10:51:00,
2013-01-15 05:55:00,28.7,25.6,30.13,NNW,341,0.0,0.0,88,0.00,,,0.00,Wunderground v.1.15,2013-01-15 10:55:00,
2013-01-15 05:56:00,28.8,25.7,30.14,NNW,341,0.0,0.0,88,0.00,,,0.00,Wunderground v.1.15,2013-01-15 10:56:00,
2013-01-15 05:58:00,28.8,25.7,30.14,NNW,341,0.0,0.0,88,0.00,,,0.00,Wunderground v.1.15,2013-01-15 10:58:00,
2013-01-15 06:01:00,28.8,25.7,30.14,NNW,341,0.0,2.0,88,0.00,,,0.00,Wunderground v.1.15,2013-01-15 11:01:00,
2013-01-15 06:03:00,28.8,25.7,30.14,NNW,341,0.0,2.0,88,0.00,,,0.00,Wunderground v.1.15,2013-01-15 11:03:00,
2013-01-15 06:06:00,28.8,25.7,30.14,NNW,341,0.0,2.0,88,0.00,,,0.00,Wunderground v.1.15,2013-01-15 11:06:00,
2013-01-15 06:08:00,28.8,25.7,30.14,NNW,341,0.0,2.0,88,0.00,,,0.00,Wunderground v.1.15,2013-01-15 11:08:00,
2013-01-15 06:09:00,28.8,25.7,30.14,NNW,341,0.0,2.0,88,0.00,,,0.00,Wunderground v.1.15,2013-01-15 11:09:00,
2013-01-15 06:10:00,28.8,25.7,30.14,NNW,341,0.0,2.0,88,0.00,,,0.00,Wunderground v.1.15,2013-01-15 11:10:00,
2013-01-15 06:11:00,28.8,25.7,30.14,NNW,341,0.0,2.0,88,0.00,,,0.00,Wunderground v.1.15,2013-01-15 11:11:00,
2013-01-15 06:14:00,28.8,25.7,30.14,NNW,341,0.0,2.0,88,0.00,,,0.00,Wunderground v.1.15,2013-01-15 11:14:00,
2013-01-15 06:16:00,28.8,25.7,30.14,NNW,341,0.0,2.0,88,0.00,,,0.00,Wunderground v.1.15,2013-01-15 11:16:00,
2013-01-15 06:18:00,28.7,25.6,30.14,NNW,341,0.0,2.0,88,0.00,,,0.00,Wunderground v.1.15,2013-01-15 11:18:00,
2013-01-15 06:20:00,28.6,25.5,30.14,NNW,341,0.0,2.0,88,0.00,,,0.00,Wunderground v.1.15,2013-01-15 11:20:00,
2013-01-15 06:23:00,28.5,25.4,30.14,NNW,341,0.0,2.0,88,0.00,,,0.00,Wunderground v.1.15,2013-01-15 11:23:00,
2013-01-15 06:27:00,28.4,25.3,30.14,NNW,341,0.0,2.0,88,0.00,,,0.00,Wunderground v.1.15,2013-01-15 11:27:00,
2013-01-15 06:28:00,28.3,25.2,30.14,NNW,341,0.0,2.0,88,0.00,,,0.00,Wunderground v.1.15,2013-01-15 11:28:00,
2013-01-15 06:29:00,28.3,25.2,30.14,NNW,341,0.0,2.0,88,0.00,,,0.00,Wunderground v.1.15,2013-01-15 11:29:00,
2013-01-15 06:33:00,28.2,25.4,30.14,NNW,341,0.0,2.0,89,0.00,,,0.00,Wunderground v.1.15,2013-01-15 11:33:00,
2013-01-15 06:35:00,28.2,25.4,30.14,NNW,341,0.0,2.0,89,0.00,,,0.00,Wunderground v.1.15,2013-01-15 11:35:00,
2013-01-15 06:37:00,28.1,25.3,30.15,NNW,341,0.0,2.0,89,0.00,,,0.00,Wunderground v.1.15,2013-01-15 11:37:00,
2013-01-15 06:39:00,28.1,25.3,30.15,NNW,341,0.0,2.0,89,0.00,,,0.00,Wunderground v.1.15,2013-01-15 11:39:00,
2013-01-15 06:42:00,28.1,25.3,30.15,NNW,341,0.0,2.0,89,0.00,,,0.00,Wunderground v.1.15,2013-01-15 11:42:00,
2013-01-15 06:44:00,28.0,25.2,30.15,NNW,341,0.0,2.0,89,0.00,,,0.00,Wunderground v.1.15,2013-01-15 11:44:00,
2013-01-15 06:46:00,28.0,25.2,30.15,NNW,341,0.0,2.0,89,0.00,,,0.00,Wunderground v.1.15,2013-01-15 11:46:00,
2013-01-15 06:49:00,28.0,25.2,30.15,NNW,341,0.0,2.0,89,0.00,,,0.00,Wunderground v.1.15,2013-01-15 11:49:00,
2013-01-15 06:50:00,27.9,25.1,30.15,NNW,341,0.0,2.0,89,0.00,,,0.00,Wunderground v.1.15,2013-01-15 11:50:00,
2013-01-15 06:51:00,27.9,25.1,30.15,NNW,341,0.0,2.0,89,0.00,,,0.00,Wunderground v.1.15,2013-01-15 11:51:00,
2013-01-15 06:52:00,27.9,25.1,30.15,NNW,341,0.0,2.0,89,0.00,,,0.00,Wunderground v.1.15,2013-01-15 11:52:00,
2013-01-15 06:55:00,27.9,25.3,30.15,NNW,341,0.0,2.0,90,0.00,,,0.00,Wunderground v.1.15,2013-01-15 11:55:00,
2013-01-15 06:58:00,27.9,25.3,30.15,NNW,341,0.0,2.0,90,0.00,,,0.00,Wunderground v.1.15,2013-01-15 11:58:00,
2013-01-15 06:59:00,27.9,25.3,30.15,NNW,341,0.0,2.0,90,0.00,,,0.00,Wunderground v.1.15,2013-01-15 11:59:00,
2013-01-15 07:01:00,27.8,25.2,30.16,NNW,341,0.0,1.0,90,0.00,,,0.00,Wunderground v.1.15,2013-01-15 12:01:00,
2013-01-15 07:03:00,27.8,25.2,30.16,NNW,341,0.0,1.0,90,0.00,,,0.00,Wunderground v.1.15,2013-01-15 12:03:00,
2013-01-15 07:04:00,27.8,25.2,30.16,NNW,341,0.0,1.0,90,0.00,,,0.00,Wunderground v.1.15,2013-01-15 12:04:00,
2013-01-15 07:06:00,27.8,25.2,30.16,NNW,341,0.0,1.0,90,0.00,,,0.00,Wunderground v.1.15,2013-01-15 12:06:00,
2013-01-15 07:09:00,27.7,25.2,30.17,NNW,341,0.0,1.0,90,0.00,,,0.00,Wunderground v.1.15,2013-01-15 12:09:00,
2013-01-15 07:11:00,27.7,25.2,30.17,NNW,341,0.0,1.0,90,0.00,,,0.00,Wunderground v.1.15,2013-01-15 12:11:00,
2013-01-15 07:13:00,27.7,25.2,30.17,NNW,341,0.0,1.0,90,0.00,,,0.00,Wunderground v.1.15,2013-01-15 12:13:00,
2013-01-15 07:17:00,27.7,25.2,30.17,NNW,341,0.0,1.0,90,0.00,,,0.00,Wunderground v.1.15,2013-01-15 12:17:00,
2013-01-15 07:20:00,27.8,25.2,30.17,NNW,341,0.0,1.0,90,0.00,,,0.00,Wunderground v.1.15,2013-01-15 12:20:00,
2013-01-15 07:21:00,27.8,25.2,30.17,NNW,341,0.0,1.0,90,0.00,,,0.00,Wunderground v.1.15,2013-01-15 12:21:00,
2013-01-15 07:22:00,27.8,25.5,30.17,NNW,341,0.0,1.0,91,0.00,,,0.00,Wunderground v.1.15,2013-01-15 12:22:00,
2013-01-15 07:24:00,27.8,25.5,30.17,NNW,341,0.0,1.0,91,0.00,,,0.00,Wunderground v.1.15,2013-01-15 12:24:00,
2013-01-15 07:27:00,27.8,25.2,30.17,NNW,341,0.0,1.0,90,0.00,,,0.00,Wunderground v.1.15,2013-01-15 12:27:00,
2013-01-15 07:29:00,27.8,25.2,30.17,NNW,341,0.0,3.0,90,0.00,,,0.00,Wunderground v.1.15,2013-01-15 12:29:00,
2013-01-15 07:30:00,27.7,25.4,30.17,NNW,341,1.0,2.0,91,0.00,,,0.00,Wunderground v.1.15,2013-01-15 12:30:00,
2013-01-15 07:32:00,27.7,25.4,30.17,NNW,341,1.0,2.0,91,0.00,,,0.00,Wunderground v.1.15,2013-01-15 12:32:00,
2013-01-15 07:35:00,27.6,25.3,30.18,NNW,341,1.0,2.0,91,0.00,,,0.00,Wunderground v.1.15,2013-01-15 12:35:00,
2013-01-15 07:38:00,27.7,25.4,30.17,NNW,341,2.0,2.0,91,0.00,,,0.00,Wunderground v.1.15,2013-01-15 12:38:00,
2013-01-15 07:39:00,27.7,25.4,30.17,NNW,341,1.0,2.0,91,0.00,,,0.00,Wunderground v.1.15,2013-01-15 12:39:00,
2013-01-15 07:40:00,27.7,25.4,30.17,NNW,341,1.0,1.0,91,0.00,,,0.00,Wunderground v.1.15,2013-01-15 12:40:00,
2013-01-15 07:41:00,27.8,25.5,30.17,NNW,341,1.0,1.0,91,0.00,,,0.00,Wunderground v.1.15,2013-01-15 12:41:00,
2013-01-15 07:43:00,27.7,25.4,30.18,NNW,341,1.0,1.0,91,0.00,,,0.00,Wunderground v.1.15,2013-01-15 12:43:00,
2013-01-15 07:45:00,27.7,25.4,30.18,NNW,341,0.0,1.0,91,0.00,,,0.00,Wunderground v.1.15,2013-01-15 12:45:00,
2013-01-15 07:49:00,27.6,25.3,30.18,NNW,341,0.0,1.0,91,0.00,,,0.00,Wunderground v.1.15,2013-01-15 12:49:00,
2013-01-15 07:53:00,27.5,25.2,30.18,NNW,341,0.0,1.0,91,0.00,,,0.00,Wunderground v.1.15,2013-01-15 12:53:00,
2013-01-15 07:54:00,27.5,25.2,30.18,NNW,341,0.0,1.0,91,0.00,,,0.00,Wunderground v.1.15,2013-01-15 12:54:00,
2013-01-15 07:57:00,27.5,25.2,30.18,NNW,341,0.0,1.0,91,0.00,,,0.00,Wunderground v.1.15,2013-01-15 12:57:00,
2013-01-15 07:58:00,27.5,25.2,30.18,NNW,341,0.0,1.0,91,0.00,,,0.00,Wunderground v.1.15,2013-01-15 12:58:00,
2013-01-15 07:59:00,27.5,25.2,30.18,NNW,341,0.0,1.0,91,0.00,,,0.00,Wunderground v.1.15,2013-01-15 12:59:00,
2013-01-15 08:03:00,27.6,25.3,30.18,NNW,341,0.0,2.0,91,0.00,,,0.00,Wunderground v.1.15,2013-01-15 13:03:00,
2013-01-15 08:05:00,27.6,25.3,30.18,NNW,341,0.0,2.0,91,0.00,,,0.00,Wunderground v.1.15,2013-01-15 13:05:00,
2013-01-15 08:06:00,27.7,25.4,30.18,NNW,341,0.0,2.0,91,0.00,,,0.00,Wunderground v.1.15,2013-01-15 13:06:00,
2013-01-15 08:08:00,27.7,25.7,30.18,NNW,341,0.0,2.0,92,0.00,,,0.00,Wunderground v.1.15,2013-01-15 13:08:00,
2013-01-15 08:09:00,27.8,25.8,30.18,NNW,341,0.0,2.0,92,0.00,,,0.00,Wunderground v.1.15,2013-01-15 13:09:00,
2013-01-15 08:11:00,27.8,25.8,30.18,NNW,341,0.0,2.0,92,0.00,,,0.00,Wunderground v.1.15,2013-01-15 13:11:00,
2013-01-15 08:13:00,27.9,25.9,30.18,NNW,341,0.0,2.0,92,0.00,,,0.00,Wunderground v.1.15,2013-01-15 13:13:00,
2013-01-15 08:15:00,28.0,26.0,30.18,NNW,341,0.0,2.0,92,0.00,,,0.00,Wunderground v.1.15,2013-01-15 13:15:00,
2013-01-15 08:16:00,28.0,26.0,30.18,NNW,341,0.0,2.0,92,0.00,,,0.00,Wunderground v.1.15,2013-01-15 13:16:00,
2013-01-15 08:19:00,28.1,26.1,30.18,NW,309,0.0,2.0,92,0.00,,,0.00,Wunderground v.1.15,2013-01-15 13:19:00,
2013-01-15 08:21:00,28.2,26.2,30.18,NW,311,0.0,2.0,92,0.00,,,0.00,Wunderground v.1.15,2013-01-15 13:21:00,
2013-01-15 08:24:00,28.5,26.5,30.18,SSE,156,0.0,2.0,92,0.00,,,0.00,Wunderground v.1.15,2013-01-15 13:24:00,
2013-01-15 08:27:00,28.8,26.8,30.18,SSE,156,0.0,2.0,92,0.00,,,0.00,Wunderground v.1.15,2013-01-15 13:27:00,
2013-01-15 08:28:00,28.8,26.8,30.18,SSE,156,0.0,2.0,92,0.00,,,0.00,Wunderground v.1.15,2013-01-15 13:28:00,
2013-01-15 08:31:00,29.1,27.1,30.18,ENE,69,0.0,2.0,92,0.00,,,0.00,Wunderground v.1.15,2013-01-15 13:31:00,
2013-01-15 08:33:00,29.3,27.3,30.18,ENE,69,0.0,2.0,92,0.00,,,0.00,Wunderground v.1.15,2013-01-15 13:33:00,
2013-01-15 08:34:00,29.4,27.4,30.18,ENE,69,0.0,2.0,92,0.00,,,0.00,Wunderground v.1.15,2013-01-15 13:34:00,
2013-01-15 08:38:00,29.6,27.3,30.18,ENE,76,0.0,2.0,91,0.00,,,0.00,Wunderground v.1.15,2013-01-15 13:38:00,
2013-01-15 08:39:00,29.7,27.4,30.18,ENE,76,0.0,2.0,91,0.00,,,0.00,Wunderground v.1.15,2013-01-15 13:39:00,
2013-01-15 08:43:00,29.9,27.6,30.19,ENE,76,0.0,2.0,91,0.00,,,0.00,Wunderground v.1.15,2013-01-15 13:43:00,
2013-01-15 08:46:00,30.1,27.8,30.19,ENE,76,0.0,2.0,91,0.00,,,0.00,Wunderground v.1.15,2013-01-15 13:46:00,
2013-01-15 08:48:00,30.1,27.8,30.19,ENE,76,0.0,2.0,91,0.00,,,0.00,Wunderground v.1.15,2013-01-15 13:48:00,
2013-01-15 08:51:00,30.3,27.7,30.19,ENE,76,0.0,2.0,90,0.00,,,0.00,Wunderground v.1.15,2013-01-15 13:51:00,
2013-01-15 08:54:00,30.3,27.7,30.19,ENE,76,0.0,2.0,90,0.00,,,0.00,Wunderground v.1.15,2013-01-15 13:54:00,
2013-01-15 08:55:00,30.4,27.5,30.19,ENE,76,0.0,2.0,89,0.00,,,0.00,Wunderground v.1.15,2013-01-15 13:55:00,
2013-01-15 08:58:00,30.6,27.7,30.19,ENE,76,0.0,2.0,89,0.00,,,0.00,Wunderground v.1.15,2013-01-15 13:58:00,
2013-01-15 09:00:00,30.7,27.8,30.19,ENE,76,0.0,2.0,89,0.00,,,0.00,Wunderground v.1.15,2013-01-15 14:00:00,
2013-01-15 09:01:00,30.7,27.8,30.19,ENE,76,0.0,2.0,89,0.00,,,0.00,Wunderground v.1.15,2013-01-15 14:01:00,
2013-01-15 09:05:00,31.0,27.9,30.19,ENE,76,0.0,2.0,88,0.00,,,0.00,Wunderground v.1.15,2013-01-15 14:05:00,
2013-01-15 09:07:00,31.1,27.4,30.19,ENE,76,0.0,2.0,86,0.00,,,0.00,Wunderground v.1.15,2013-01-15 14:07:00,
2013-01-15 09:09:00,31.2,27.2,30.19,ENE,76,0.0,2.0,85,0.00,,,0.00,Wunderground v.1.15,2013-01-15 14:09:00,
2013-01-15 09:12:00,31.5,27.2,30.19,ENE,76,0.0,2.0,84,0.00,,,0.00,Wunderground v.1.15,2013-01-15 14:12:00,
2013-01-15 09:13:00,31.6,27.3,30.19,ENE,76,0.0,2.0,84,0.00,,,0.00,Wunderground v.1.15,2013-01-15 14:13:00,
2013-01-15 09:14:00,31.7,27.1,30.19,ENE,76,0.0,2.0,83,0.00,,,0.00,Wunderground v.1.15,2013-01-15 14:14:00,
2013-01-15 09:18:00,32.1,27.2,30.20,ENE,76,0.0,2.0,82,0.00,,,0.00,Wunderground v.1.15,2013-01-15 14:18:00,
2013-01-15 09:20:00,32.2,27.3,30.20,ENE,76,0.0,2.0,82,0.00,,,0.00,Wunderground v.1.15,2013-01-15 14:20:00,
2013-01-15 09:22:00,32.3,27.1,30.20,ENE,76,0.0,2.0,81,0.00,,,0.00,Wunderground v.1.15,2013-01-15 14:22:00,
2013-01-15 09:23:00,32.4,27.2,30.20,ENE,76,0.0,2.0,81,0.00,,,0.00,Wunderground v.1.15,2013-01-15 14:23:00,
2013-01-15 09:24:00,32.4,27.2,30.20,ENE,76,0.0,2.0,81,0.00,,,0.00,Wunderground v.1.15,2013-01-15 14:24:00,
2013-01-15 09:29:00,32.8,27.0,30.20,ENE,76,0.0,2.0,79,0.00,,,0.00,Wunderground v.1.15,2013-01-15 14:29:00,
2013-01-15 09:30:00,32.8,27.3,30.20,ENE,76,0.0,2.0,80,0.00,,,0.00,Wunderground v.1.15,2013-01-15 14:30:00,
2013-01-15 09:33:00,33.0,27.2,30.21,ENE,76,0.0,2.0,79,0.00,,,0.00,Wunderground v.1.15,2013-01-15 14:33:00,
2013-01-15 09:34:00,33.0,27.2,30.21,ENE,76,0.0,2.0,79,0.00,,,0.00,Wunderground v.1.15,2013-01-15 14:34:00,
2013-01-15 09:35:00,33.0,27.2,30.21,ENE,76,0.0,2.0,79,0.00,,,0.00,Wunderground v.1.15,2013-01-15 14:35:00,
2013-01-15 09:36:00,33.1,27.3,30.21,ENE,76,0.0,2.0,79,0.00,,,0.00,Wunderground v.1.15,2013-01-15 14:36:00,
2013-01-15 09:38:00,33.2,27.1,30.21,ENE,76,0.0,2.0,78,0.00,,,0.00,Wunderground v.1.15,2013-01-15 14:38:00,
2013-01-15 09:41:00,33.3,26.9,30.21,ENE,76,0.0,2.0,77,0.00,,,0.00,Wunderground v.1.15,2013-01-15 14:41:00,
2013-01-15 09:42:00,33.3,26.9,30.21,ENE,76,0.0,2.0,77,0.00,,,0.00,Wunderground v.1.15,2013-01-15 14:42:00,
2013-01-15 09:43:00,33.3,26.9,30.21,ENE,76,0.0,2.0,77,0.00,,,0.00,Wunderground v.1.15,2013-01-15 14:43:00,
2013-01-15 09:44:00,33.4,26.6,30.21,ENE,76,0.0,2.0,76,0.00,,,0.00,Wunderground v.1.15,2013-01-15 14:44:00,
2013-01-15 09:48:00,33.5,26.4,30.21,ENE,76,0.0,2.0,75,0.00,,,0.00,Wunderground v.1.15,2013-01-15 14:48:00,
2013-01-15 09:49:00,33.6,26.5,30.21,ENE,76,0.0,2.0,75,0.00,,,0.00,Wunderground v.1.15,2013-01-15 14:49:00,
2013-01-15 09:51:00,33.7,26.6,30.21,ENE,76,0.0,2.0,75,0.00,,,0.00,Wunderground v.1.15,2013-01-15 14:51:00,
2013-01-15 09:52:00,33.7,26.3,30.21,ENE,76,0.0,2.0,74,0.00,,,0.00,Wunderground v.1.15,2013-01-15 14:52:00,
2013-01-15 09:57:00,33.9,26.2,30.21,ENE,76,0.0,2.0,73,0.00,,,0.00,Wunderground v.1.15,2013-01-15 14:57:00,
2013-01-15 09:59:00,34.1,26.3,30.22,ENE,76,0.0,2.0,73,0.00,,,0.00,Wunderground v.1.15,2013-01-15 14:59:00,
2013-01-15 10:02:00,34.3,27.2,30.21,ESE,111,0.0,1.0,75,0.00,,,0.00,Wunderground v.1.15,2013-01-15 15:02:00,
2013-01-15 10:03:00,34.4,27.3,30.21,ESE,111,0.0,1.0,75,0.00,,,0.00,Wunderground v.1.15,2013-01-15 15:03:00,
2013-01-15 10:04:00,34.4,27.6,30.21,ESE,111,0.0,1.0,76,0.00,,,0.00,Wunderground v.1.15,2013-01-15 15:04:00,
2013-01-15 10:06:00,34.6,27.8,30.21,ESE,112,0.0,1.0,76,0.00,,,0.00,Wunderground v.1.15,2013-01-15 15:06:00,
2013-01-15 10:09:00,34.8,28.0,30.21,ESE,112,0.0,1.0,76,0.00,,,0.00,Wunderground v.1.15,2013-01-15 15:09:00,
2013-01-15 10:10:00,34.9,28.1,30.21,ESE,111,0.0,1.0,76,0.00,,,0.00,Wunderground v.1.15,2013-01-15 15:10:00,
2013-01-15 10:11:00,35.0,28.5,30.21,ESE,109,0.0,1.0,77,0.00,,,0.00,Wunderground v.1.15,2013-01-15 15:11:00,
2013-01-15 10:15:00,35.2,28.1,30.20,ESE,113,0.0,1.0,75,0.00,,,0.00,Wunderground v.1.15,2013-01-15 15:15:00,
2013-01-15 10:16:00,35.3,28.2,30.20,ESE,118,0.0,1.0,75,0.00,,,0.00,Wunderground v.1.15,2013-01-15 15:16:00,
2013-01-15 10:18:00,35.4,28.6,30.20,ESE,119,0.0,1.0,76,0.00,,,0.00,Wunderground v.1.15,2013-01-15 15:18:00,
2013-01-15 10:21:00,35.4,28.3,30.20,East,86,1.0,3.0,75,0.00,,,0.00,Wunderground v.1.15,2013-01-15 15:21:00,
2013-01-15 10:22:00,35.3,27.8,30.20,East,86,1.0,3.0,74,0.00,,,0.00,Wunderground v.1.15,2013-01-15 15:22:00,
2013-01-15 10:23:00,35.3,27.8,30.20,East,88,1.0,3.0,74,0.00,,,0.00,Wunderground v.1.15,2013-01-15 15:23:00,
2013-01-15 10:24:00,35.2,27.7,30.20,East,90,1.0,3.0,74,0.00,,,0.00,Wunderground v.1.15,2013-01-15 15:24:00,
2013-01-15 10:26:00,35.1,27.3,30.20,East,90,1.0,4.0,73,0.00,,,0.00,Wunderground v.1.15,2013-01-15 15:26:00,
2013-01-15 10:28:00,35.1,27.3,30.20,East,88,1.0,4.0,73,0.00,,,0.00,Wunderground v.1.15,2013-01-15 15:28:00,
2013-01-15 10:29:00,35.1,27.3,30.19,ESE,115,2.0,4.0,73,0.00,,,0.00,Wunderground v.1.15,2013-01-15 15:29:00,
2013-01-15 10:31:00,35.1,27.0,30.19,ESE,114,2.0,2.0,72,0.00,,,0.00,Wunderground v.1.15,2013-01-15 15:31:00,
2013-01-15 10:33:00,35.2,27.1,30.19,ESE,114,1.0,2.0,72,0.00,,,0.00,Wunderground v.1.15,2013-01-15 15:33:00,
2013-01-15 10:35:00,35.2,26.7,30.19,ESE,107,1.0,2.0,71,0.00,,,0.00,Wunderground v.1.15,2013-01-15 15:35:00,
2013-01-15 10:39:00,35.2,26.7,30.19,ESE,107,1.0,2.0,71,0.00,,,0.00,Wunderground v.1.15,2013-01-15 15:39:00,
2013-01-15 10:40:00,35.2,26.7,30.19,ESE,107,0.0,0.0,71,0.00,,,0.00,Wunderground v.1.15,2013-01-15 15:40:00,
2013-01-15 10:44:00,35.2,26.7,30.18,ESE,107,0.0,0.0,71,0.00,,,0.00,Wunderground v.1.15,2013-01-15 15:44:00,
2013-01-15 10:45:00,35.2,26.4,30.18,ESE,107,0.0,0.0,70,0.00,,,0.00,Wunderground v.1.15,2013-01-15 15:45:00,
2013-01-15 10:47:00,35.2,26.7,30.18,ESE,107,0.0,0.0,71,0.00,,,0.00,Wunderground v.1.15,2013-01-15 15:47:00,
2013-01-15 10:50:00,35.4,27.3,30.18,ESE,107,0.0,0.0,72,0.00,,,0.00,Wunderground v.1.15,2013-01-15 15:50:00,
2013-01-15 10:51:00,35.5,27.4,30.18,ESE,107,0.0,0.0,72,0.00,,,0.00,Wunderground v.1.15,2013-01-15 15:51:00,
2013-01-15 10:56:00,35.7,27.2,30.18,ESE,107,0.0,0.0,71,0.00,,,0.00,Wunderground v.1.15,2013-01-15 15:56:00,
2013-01-15 10:57:00,35.8,27.3,30.18,ESE,110,0.0,0.0,71,0.00,,,0.00,Wunderground v.1.15,2013-01-15 15:57:00,
2013-01-15 10:59:00,36.0,27.5,30.17,ESE,109,0.0,0.0,71,0.00,,,0.00,Wunderground v.1.15,2013-01-15 15:59:00,
2013-01-15 11:02:00,36.1,26.9,30.17,ESE,104,0.0,4.0,69,0.00,,,0.00,Wunderground v.1.15,2013-01-15 16:02:00,
2013-01-15 11:03:00,36.1,26.9,30.17,ESE,104,0.0,4.0,69,0.00,,,0.00,Wunderground v.1.15,2013-01-15 16:03:00,
2013-01-15 11:06:00,36.4,27.5,30.17,ESE,104,0.0,4.0,70,0.00,,,0.00,Wunderground v.1.15,2013-01-15 16:06:00,
2013-01-15 11:07:00,36.4,27.2,30.17,ESE,104,0.0,4.0,69,0.00,,,0.00,Wunderground v.1.15,2013-01-15 16:07:00,
2013-01-15 11:09:00,36.6,27.7,30.17,ESE,104,0.0,4.0,70,0.00,,,0.00,Wunderground v.1.15,2013-01-15 16:09:00,
2013-01-15 11:12:00,36.8,27.6,30.17,ENE,74,0.0,4.0,69,0.00,,,0.00,Wunderground v.1.15,2013-01-15 16:12:00,
2013-01-15 11:13:00,36.8,27.9,30.17,North,5,0.0,6.0,70,0.00,,,0.00,Wunderground v.1.15,2013-01-15 16:13:00,
2013-01-15 11:14:00,36.9,27.7,30.17,NNE,15,0.0,6.0,69,0.00,,,0.00,Wunderground v.1.15,2013-01-15 16:14:00,
2013-01-15 11:15:00,36.9,27.3,30.17,NNE,15,1.0,6.0,68,0.00,,,0.00,Wunderground v.1.15,2013-01-15 16:15:00,
2013-01-15 11:18:00,36.9,27.0,30.17,East,93,1.0,6.0,67,0.00,,,0.00,Wunderground v.1.15,2013-01-15 16:18:00,
2013-01-15 11:21:00,36.9,27.0,30.17,SE,138,1.0,4.0,67,0.00,,,0.00,Wunderground v.1.15,2013-01-15 16:21:00,
2013-01-15 11:22:00,36.9,27.0,30.17,SE,137,1.0,4.0,67,0.00,,,0.00,Wunderground v.1.15,2013-01-15 16:22:00,
2013-01-15 11:23:00,37.0,27.4,30.17,ENE,68,1.0,4.0,68,0.00,,,0.00,Wunderground v.1.15,2013-01-15 16:23:00,
2013-01-15 11:28:00,37.1,26.4,30.17,North,5,1.0,5.0,65,0.00,,,0.00,Wunderground v.1.15,2013-01-15 16:28:00,
2013-01-15 11:30:00,37.2,26.5,30.17,NNE,17,1.0,1.0,65,0.00,,,0.00,Wunderground v.1.15,2013-01-15 16:30:00,
2013-01-15 11:33:00,37.3,26.6,30.16,NNE,31,1.0,5.0,65,0.00,,,0.00,Wunderground v.1.15,2013-01-15 16:33:00,
2013-01-15 11:34:00,37.4,26.3,30.17,North,360,1.0,5.0,64,0.00,,,0.00,Wunderground v.1.15,2013-01-15 16:34:00,
2013-01-15 11:39:00,37.5,25.7,30.17,East,84,1.0,5.0,62,0.00,,,0.00,Wunderground v.1.15,2013-01-15 16:39:00,
2013-01-15 11:40:00,37.5,25.7,30.16,ENE,74,1.0,4.0,62,0.00,,,0.00,Wunderground v.1.15,2013-01-15 16:40:00,
2013-01-15 11:44:00,37.5,25.3,30.16,South,190,1.0,4.0,61,0.00,,,0.00,Wunderground v.1.15,2013-01-15 16:44:00,
2013-01-15 11:45:00,37.6,25.7,30.16,ENE,58,1.0,4.0,62,0.00,,,0.00,Wunderground v.1.15,2013-01-15 16:45:00,
2013-01-15 11:46:00,37.7,25.8,30.16,NNW,344,1.0,4.0,62,0.00,,,0.00,Wunderground v.1.15,2013-01-15 16:46:00,
2013-01-15 11:49:00,37.9,26.0,30.16,North,5,1.0,4.0,62,0.00,,,0.00,Wunderground v.1.15,2013-01-15 16:49:00,
2013-01-15 11:50:00,38.0,26.1,30.15,North,9,1.0,1.0,62,0.00,,,0.00,Wunderground v.1.15,2013-01-15 16:50:00,
2013-01-15 11:51:00,38.0,26.1,30.15,North,5,1.0,4.0,62,0.00,,,0.00,Wunderground v.1.15,2013-01-15 16:51:00,
2013-01-15 11:54:00,38.1,25.8,30.15,West,281,1.0,4.0,61,0.00,,,0.00,Wunderground v.1.15,2013-01-15 16:54:00,
2013-01-15 11:55:00,38.1,26.2,30.15,WNW,296,1.0,4.0,62,0.00,,,0.00,Wunderground v.1.15,2013-01-15 16:55:00,
2013-01-15 11:58:00,38.2,25.9,30.15,North,351,0.0,4.0,61,0.00,,,0.00,Wunderground v.1.15,2013-01-15 16:58:00,
2013-01-15 12:00:00,38.2,26.3,30.15,NNE,28,1.0,7.0,62,0.00,,,0.00,Wunderground v.1.15,2013-01-15 17:00:00,
2013-01-15 12:02:00,38.3,26.0,30.15,NE,36,1.0,7.0,61,0.00,,,0.00,Wunderground v.1.15,2013-01-15 17:02:00,
2013-01-15 12:04:00,38.3,25.2,30.15,NNE,33,2.0,7.0,59,0.00,,,0.00,Wunderground v.1.15,2013-01-15 17:04:00,
2013-01-15 12:05:00,38.3,25.2,30.15,NNW,332,2.0,7.0,59,0.00,,,0.00,Wunderground v.1.15,2013-01-15 17:05:00,
2013-01-15 12:09:00,38.3,26.0,30.15,North,355,3.0,7.0,61,0.00,,,0.00,Wunderground v.1.15,2013-01-15 17:09:00,
2013-01-15 12:13:00,38.3,25.6,30.15,North,355,3.0,7.0,60,0.00,,,0.00,Wunderground v.1.15,2013-01-15 17:13:00,
2013-01-15 12:14:00,38.3,26.0,30.15,NNW,340,3.0,7.0,61,0.00,,,0.00,Wunderground v.1.15,2013-01-15 17:14:00,
2013-01-15 12:15:00,38.3,26.4,30.15,NNW,340,3.0,7.0,62,0.00,,,0.00,Wunderground v.1.15,2013-01-15 17:15:00,
2013-01-15 12:19:00,38.2,25.5,30.15,NE,43,2.0,7.0,60,0.00,,,0.00,Wunderground v.1.15,2013-01-15 17:19:00,
2013-01-15 12:20:00,38.2,25.1,30.14,NNE,22,2.0,7.0,59,0.00,,,0.00,Wunderground v.1.15,2013-01-15 17:20:00,
2013-01-15 12:23:00,38.2,24.7,30.14,North,9,2.0,7.0,58,0.00,,,0.00,Wunderground v.1.15,2013-01-15 17:23:00,
2013-01-15 12:25:00,38.2,25.5,30.14,NNE,32,2.0,7.0,60,0.00,,,0.00,Wunderground v.1.15,2013-01-15 17:25:00,
2013-01-15 12:28:00,38.4,26.1,30.14,NNE,32,2.0,7.0,61,0.00,,,0.00,Wunderground v.1.15,2013-01-15 17:28:00,
2013-01-15 12:29:00,38.4,25.7,30.14,NNE,18,1.0,7.0,60,0.00,,,0.00,Wunderground v.1.15,2013-01-15 17:29:00,
2013-01-15 12:34:00,38.6,25.9,30.15,East,94,1.0,7.0,60,0.00,,,0.00,Wunderground v.1.15,2013-01-15 17:34:00,
2013-01-15 12:36:00,38.6,25.5,30.14,ENE,58,1.0,7.0,59,0.00,,,0.00,Wunderground v.1.15,2013-01-15 17:36:00,
2013-01-15 12:37:00,38.6,25.5,30.14,ENE,58,1.0,7.0,59,0.00,,,0.00,Wunderground v.1.15,2013-01-15 17:37:00,
2013-01-15 12:39:00,38.6,25.5,30.14,ENE,59,1.0,7.0,59,0.00,,,0.00,Wunderground v.1.15,2013-01-15 17:39:00,
2013-01-15 12:41:00,38.5,24.6,30.14,East,86,0.0,7.0,57,0.00,,,0.00,Wunderground v.1.15,2013-01-15 17:41:00,
2013-01-15 12:42:00,38.4,24.9,30.14,East,86,0.0,7.0,58,0.00,,,0.00,Wunderground v.1.15,2013-01-15 17:42:00,
2013-01-15 12:45:00,38.5,25.4,30.14,East,84,0.0,7.0,59,0.00,,,0.00,Wunderground v.1.15,2013-01-15 17:45:00,
2013-01-15 12:47:00,38.5,25.4,30.14,East,84,0.0,7.0,59,0.00,,,0.00,Wunderground v.1.15,2013-01-15 17:47:00,
2013-01-15 12:50:00,38.4,24.5,30.14,East,97,0.0,7.0,57,0.00,,,0.00,Wunderground v.1.15,2013-01-15 17:50:00,
2013-01-15 12:52:00,38.3,24.4,30.14,East,97,0.0,7.0,57,0.00,,,0.00,Wunderground v.1.15,2013-01-15 17:52:00,
2013-01-15 12:53:00,38.3,24.8,30.14,East,94,0.0,7.0,58,0.00,,,0.00,Wunderground v.1.15,2013-01-15 17:53:00,
2013-01-15 12:56:00,38.2,24.7,30.14,NE,49,0.0,7.0,58,0.00,,,0.00,Wunderground v.1.15,2013-01-15 17:56:00,
2013-01-15 12:58:00,38.2,25.1,30.14,NE,46,0.0,7.0,59,0.00,,,0.00,Wunderground v.1.15,2013-01-15 17:58:00,
2013-01-15 13:00:00,38.3,25.2,30.15,NNE,32,1.0,3.0,59,0.00,,,0.00,Wunderground v.1.15,2013-01-15 18:00:00,
2013-01-15 13:02:00,38.3,25.2,30.14,NE,41,1.0,3.0,59,0.00,,,0.00,Wunderground v.1.15,2013-01-15 18:02:00,
2013-01-15 13:06:00,38.3,25.2,30.14,NE,41,0.0,3.0,59,0.00,,,0.00,Wunderground v.1.15,2013-01-15 18:06:00,
2013-01-15 13:08:00,38.3,25.2,30.14,East,84,0.0,3.0,59,0.00,,,0.00,Wunderground v.1.15,2013-01-15 18:08:00,
2013-01-15 13:10:00,38.3,25.2,30.14,NE,39,0.0,2.0,59,0.00,,,0.00,Wunderground v.1.15,2013-01-15 18:10:00,
2013-01-15 13:14:00,38.3,24.8,30.14,ESE,108,0.0,2.0,58,0.00,,,0.00,Wunderground v.1.15,2013-01-15 18:14:00,
2013-01-15 13:15:00,38.3,24.8,30.14,ESE,109,0.0,2.0,58,0.00,,,0.00,Wunderground v.1.15,2013-01-15 18:15:00,
2013-01-15 13:16:00,38.3,24.8,30.14,NE,46,0.0,2.0,58,0.00,,,0.00,Wunderground v.1.15,2013-01-15 18:16:00,
2013-01-15 13:20:00,38.3,24.8,30.13,ESE,110,0.0,5.0,58,0.00,,,0.00,Wunderground v.1.15,2013-01-15 18:20:00,
2013-01-15 13:22:00,38.2,24.3,30.13,ESE,107,1.0,5.0,57,0.00,,,0.00,Wunderground v.1.15,2013-01-15 18:22:00,
2013-01-15 13:24:00,38.1,24.2,30.13,ENE,78,2.0,5.0,57,0.00,,,0.00,Wunderground v.1.15,2013-01-15 18:24:00,
2013-01-15 13:28:00,38.0,24.9,30.13,ENE,73,2.0,5.0,59,0.00,,,0.00,Wunderground v.1.15,2013-01-15 18:28:00,
2013-01-15 13:29:00,38.0,24.5,30.13,ENE,69,2.0,5.0,58,0.00,,,0.00,Wunderground v.1.15,2013-01-15 18:29:00,
2013-01-15 13:30:00,38.0,24.9,30.13,ENE,73,2.0,2.0,59,0.00,,,0.00,Wunderground v.1.15,2013-01-15 18:30:00,
2013-01-15 13:31:00,38.0,24.9,30.13,ENE,70,2.0,2.0,59,0.00,,,0.00,Wunderground v.1.15,2013-01-15 18:31:00,
2013-01-15 13:34:00,38.0,24.5,30.13,East,94,1.0,2.0,58,0.00,,,0.00,Wunderground v.1.15,2013-01-15 18:34:00,
2013-01-15 13:36:00,37.9,24.4,30.13,East,94,1.0,2.0,58,0.00,,,0.00,Wunderground v.1.15,2013-01-15 18:36:00,
2013-01-15 13:38:00,37.9,24.4,30.13,SSE,153,1.0,2.0,58,0.00,,,0.00,Wunderground v.1.15,2013-01-15 18:38:00,
2013-01-15 13:42:00,38.0,24.9,30.13,SE,142,2.0,5.0,59,0.00,,,0.00,Wunderground v.1.15,2013-01-15 18:42:00,
2013-01-15 13:43:00,38.1,25.0,30.13,SE,144,2.0,5.0,59,0.00,,,0.00,Wunderground v.1.15,2013-01-15 18:43:00,
2013-01-15 13:45:00,38.1,25.0,30.13,SSE,150,2.0,5.0,59,0.00,,,0.00,Wunderground v.1.15,2013-01-15 18:45:00,
2013-01-15 13:46:00,38.1,24.6,30.13,SSE,150,2.0,5.0,58,0.00,,,0.00,Wunderground v.1.15,2013-01-15 18:46:00,
2013-01-15 13:48:00,38.1,25.0,30.13,SE,135,2.0,5.0,59,0.00,,,0.00,Wunderground v.1.15,2013-01-15 18:48:00,
2013-01-15 13:51:00,38.1,24.6,30.13,SE,134,1.0,2.0,58,0.00,,,0.00,Wunderground v.1.15,2013-01-15 18:51:00,
2013-01-15 13:53:00,38.1,24.6,30.14,ESE,119,1.0,2.0,58,0.00,,,0.00,Wunderground v.1.15,2013-01-15 18:53:00,
2013-01-15 13:58:00,38.1,24.6,30.13,ESE,119,0.0,2.0,58,0.00,,,0.00,Wunderground v.1.15,2013-01-15 18:58:00,
2013-01-15 13:59:00,38.1,25.0,30.13,ESE,119,0.0,2.0,59,0.00,,,0.00,Wunderground v.1.15,2013-01-15 18:59:00,
2013-01-15 14:04:00,38.2,25.1,30.13,ESE,105,0.0,6.0,59,0.00,,,0.00,Wunderground v.1.15,2013-01-15 19:04:00,
2013-01-15 14:05:00,38.2,25.1,30.13,ESE,105,0.0,6.0,59,0.00,,,0.00,Wunderground v.1.15,2013-01-15 19:05:00,
2013-01-15 14:08:00,38.3,25.2,30.13,ENE,65,0.0,6.0,59,0.00,,,0.00,Wunderground v.1.15,2013-01-15 19:08:00,
2013-01-15 14:09:00,38.4,25.7,30.13,ENE,65,0.0,6.0,60,0.00,,,0.00,Wunderground v.1.15,2013-01-15 19:09:00,
2013-01-15 14:10:00,38.4,25.7,30.13,ENE,64,0.0,6.0,60,0.00,,,0.00,Wunderground v.1.15,2013-01-15 19:10:00,
2013-01-15 14:13:00,38.6,25.9,30.14,ENE,64,0.0,6.0,60,0.00,,,0.00,Wunderground v.1.15,2013-01-15 19:13:00,
2013-01-15 14:14:00,38.7,26.0,30.14,ENE,64,0.0,6.0,60,0.00,,,0.00,Wunderground v.1.15,2013-01-15 19:14:00,
2013-01-15 14:15:00,38.7,25.6,30.14,ENE,64,0.0,6.0,59,0.00,,,0.00,Wunderground v.1.15,2013-01-15 19:15:00,
2013-01-15 14:16:00,38.8,26.9,30.14,ENE,64,0.0,6.0,62,0.00,,,0.00,Wunderground v.1.15,2013-01-15 19:16:00,
2013-01-15 14:19:00,38.8,24.9,30.14,ENE,64,0.0,6.0,57,0.00,,,0.00,Wunderground v.1.15,2013-01-15 19:19:00,
2013-01-15 14:20:00,38.8,24.9,30.14,SSE,155,0.0,6.0,57,0.00,,,0.00,Wunderground v.1.15,2013-01-15 19:20:00,
2013-01-15 14:26:00,38.9,25.8,30.14,SSE,159,0.0,6.0,59,0.00,,,0.00,Wunderground v.1.15,2013-01-15 19:26:00,
2013-01-15 14:28:00,38.9,25.4,30.13,SSE,159,0.0,6.0,58,0.00,,,0.00,Wunderground v.1.15,2013-01-15 19:28:00,
2013-01-15 14:29:00,38.9,25.4,30.13,SSE,159,0.0,6.0,58,0.00,,,0.00,Wunderground v.1.15,2013-01-15 19:29:00,
2013-01-15 14:32:00,38.9,25.4,30.13,SSE,159,0.0,6.0,58,0.00,,,0.00,Wunderground v.1.15,2013-01-15 19:32:00,
2013-01-15 14:33:00,39.0,25.5,30.13,SSE,159,0.0,6.0,58,0.00,,,0.00,Wunderground v.1.15,2013-01-15 19:33:00,
2013-01-15 14:34:00,39.0,25.5,30.13,SSE,159,0.0,6.0,58,0.00,,,0.00,Wunderground v.1.15,2013-01-15 19:34:00,
2013-01-15 14:37:00,39.1,25.6,30.13,ESE,118,0.0,6.0,58,0.00,,,0.00,Wunderground v.1.15,2013-01-15 19:37:00,
2013-01-15 14:39:00,39.1,25.1,30.13,ESE,117,0.0,6.0,57,0.00,,,0.00,Wunderground v.1.15,2013-01-15 19:39:00,
2013-01-15 14:40:00,39.1,25.1,30.13,ESE,117,0.0,6.0,57,0.00,,,0.00,Wunderground v.1.15,2013-01-15 19:40:00,
2013-01-15 14:41:00,39.1,25.1,30.13,East,101,0.0,6.0,57,0.00,,,0.00,Wunderground v.1.15,2013-01-15 19:41:00,
2013-01-15 14:43:00,39.0,24.6,30.13,East,101,0.0,6.0,56,0.00,,,0.00,Wunderground v.1.15,2013-01-15 19:43:00,
2013-01-15 14:46:00,38.9,24.9,30.12,East,85,0.0,6.0,57,0.00,,,0.00,Wunderground v.1.15,2013-01-15 19:46:00,
2013-01-15 14:47:00,38.9,24.9,30.12,East,86,0.0,6.0,57,0.00,,,0.00,Wunderground v.1.15,2013-01-15 19:47:00,
2013-01-15 14:48:00,38.8,24.9,30.12,NE,55,0.0,6.0,57,0.00,,,0.00,Wunderground v.1.15,2013-01-15 19:48:00,
2013-01-15 14:52:00,38.9,25.4,30.12,NE,56,0.0,6.0,58,0.00,,,0.00,Wunderground v.1.15,2013-01-15 19:52:00,
2013-01-15 14:53:00,38.9,25.8,30.12,NE,56,0.0,6.0,59,0.00,,,0.00,Wunderground v.1.15,2013-01-15 19:53:00,
2013-01-15 14:54:00,38.9,25.8,30.11,NE,56,0.0,6.0,59,0.00,,,0.00,Wunderground v.1.15,2013-01-15 19:54:00,
2013-01-15 14:55:00,38.9,25.8,30.11,NE,56,0.0,6.0,59,0.00,,,0.00,Wunderground v.1.15,2013-01-15 19:55:00,
2013-01-15 15:00:00,38.8,25.3,30.11,ENE,61,0.0,4.0,58,0.00,,,0.00,Wunderground v.1.15,2013-01-15 20:00:00,
2013-01-15 15:02:00,38.8,24.9,30.11,ENE,61,0.0,4.0,57,0.00,,,0.00,Wunderground v.1.15,2013-01-15 20:02:00,
2013-01-15 15:03:00,38.8,24.9,30.11,ENE,61,0.0,4.0,57,0.00,,,0.00,Wunderground v.1.15,2013-01-15 20:03:00,
2013-01-15 15:05:00,38.7,24.8,30.11,ENE,61,0.0,4.0,57,0.00,,,0.00,Wunderground v.1.15,2013-01-15 20:05:00,
2013-01-15 15:07:00,38.6,24.7,30.11,East,87,0.0,4.0,57,0.00,,,0.00,Wunderground v.1.15,2013-01-15 20:07:00,
2013-01-15 15:10:00,38.4,24.5,30.10,ESE,119,0.0,4.0,57,0.00,,,0.00,Wunderground v.1.15,2013-01-15 20:10:00,
2013-01-15 15:12:00,38.3,24.8,30.11,ESE,119,0.0,4.0,58,0.00,,,0.00,Wunderground v.1.15,2013-01-15 20:12:00,
2013-01-15 15:14:00,38.3,24.8,30.11,ESE,118,0.0,4.0,58,0.00,,,0.00,Wunderground v.1.15,2013-01-15 20:14:00,
2013-01-15 15:15:00,38.3,25.2,30.11,ESE,118,0.0,4.0,59,0.00,,,0.00,Wunderground v.1.15,2013-01-15 20:15:00,
2013-01-15 15:19:00,38.3,25.2,30.12,ESE,118,0.0,4.0,59,0.00,,,0.00,Wunderground v.1.15,2013-01-15 20:19:00,
2013-01-15 15:20:00,38.2,25.5,30.12,ESE,118,0.0,4.0,60,0.00,,,0.00,Wunderground v.1.15,2013-01-15 20:20:00,
2013-01-15 15:22:00,38.2,25.1,30.12,ESE,118,0.0,4.0,59,0.00,,,0.00,Wunderground v.1.15,2013-01-15 20:22:00,
2013-01-15 15:24:00,38.2,24.7,30.12,ESE,105,0.0,4.0,58,0.00,,,0.00,Wunderground v.1.15,2013-01-15 20:24:00,
2013-01-15 15:27:00,38.2,25.1,30.11,ESE,105,0.0,4.0,59,0.00,,,0.00,Wunderground v.1.15,2013-01-15 20:27:00,
2013-01-15 15:29:00,38.1,25.0,30.11,ESE,105,0.0,4.0,59,0.00,,,0.00,Wunderground v.1.15,2013-01-15 20:29:00,
2013-01-15 15:32:00,38.0,24.5,30.11,ESE,105,0.0,4.0,58,0.00,,,0.00,Wunderground v.1.15,2013-01-15 20:32:00,
2013-01-15 15:33:00,38.0,24.5,30.11,ESE,105,0.0,4.0,58,0.00,,,0.00,Wunderground v.1.15,2013-01-15 20:33:00,
2013-01-15 15:36:00,38.0,24.5,30.11,ESE,105,0.0,4.0,58,0.00,,,0.00,Wunderground v.1.15,2013-01-15 20:36:00,
2013-01-15 15:39:00,37.9,24.4,30.11,ESE,105,0.0,4.0,58,0.00,,,0.00,Wunderground v.1.15,2013-01-15 20:39:00,
2013-01-15 15:41:00,37.9,24.4,30.12,ESE,105,0.0,4.0,58,0.00,,,0.00,Wunderground v.1.15,2013-01-15 20:41:00,
2013-01-15 15:44:00,37.9,24.4,30.12,ESE,105,0.0,4.0,58,0.00,,,0.00,Wunderground v.1.15,2013-01-15 20:44:00,
2013-01-15 15:45:00,37.9,24.4,30.12,ESE,105,0.0,4.0,58,0.00,,,0.00,Wunderground v.1.15,2013-01-15 20:45:00,
2013-01-15 15:47:00,37.8,24.7,30.12,ESE,105,0.0,4.0,59,0.00,,,0.00,Wunderground v.1.15,2013-01-15 20:47:00,
2013-01-15 15:50:00,37.9,24.8,30.12,ESE,105,0.0,4.0,59,0.00,,,0.00,Wunderground v.1.15,2013-01-15 20:50:00,
2013-01-15 15:51:00,37.8,24.7,30.12,ESE,105,0.0,4.0,59,0.00,,,0.00,Wunderground v.1.15,2013-01-15 20:51:00,
2013-01-15 15:52:00,37.8,24.7,30.13,ESE,105,0.0,4.0,59,0.00,,,0.00,Wunderground v.1.15,2013-01-15 20:52:00,
2013-01-15 15:55:00,37.8,24.7,30.13,ESE,105,0.0,4.0,59,0.00,,,0.00,Wunderground v.1.15,2013-01-15 20:55:00,
2013-01-15 16:00:00,37.7,25.1,30.13,ESE,105,0.0,0.0,60,0.00,,,0.00,Wunderground v.1.15,2013-01-15 21:00:00,
2013-01-15 16:01:00,37.7,24.6,30.13,ESE,105,0.0,0.0,59,0.00,,,0.00,Wunderground v.1.15,2013-01-15 21:01:00,
2013-01-15 16:05:00,37.5,24.5,30.13,ESE,105,0.0,0.0,59,0.00,,,0.00,Wunderground v.1.15,2013-01-15 21:05:00,
2013-01-15 16:06:00,37.5,24.9,30.13,ESE,106,0.0,0.0,60,0.00,,,0.00,Wunderground v.1.15,2013-01-15 21:06:00,
2013-01-15 16:07:00,37.4,24.8,30.13,SSE,161,0.0,2.0,60,0.00,,,0.00,Wunderground v.1.15,2013-01-15 21:07:00,
2013-01-15 16:08:00,37.4,24.8,30.13,South,169,0.0,2.0,60,0.00,,,0.00,Wunderground v.1.15,2013-01-15 21:08:00,
2013-01-15 16:13:00,37.2,24.6,30.14,South,169,0.0,0.0,60,0.00,,,0.00,Wunderground v.1.15,2013-01-15 21:13:00,
2013-01-15 16:16:00,37.1,24.5,30.14,South,169,0.0,0.0,60,0.00,,,0.00,Wunderground v.1.15,2013-01-15 21:16:00,
2013-01-15 16:17:00,37.1,24.5,30.14,South,169,0.0,0.0,60,0.00,,,0.00,Wunderground v.1.15,2013-01-15 21:17:00,
2013-01-15 16:18:00,37.0,24.4,30.14,South,169,0.0,0.0,60,0.00,,,0.00,Wunderground v.1.15,2013-01-15 21:18:00,
2013-01-15 16:21:00,36.9,24.3,30.14,South,169,0.0,0.0,60,0.00,,,0.00,Wunderground v.1.15,2013-01-15 21:21:00,
2013-01-15 16:22:00,36.9,24.3,30.14,South,169,0.0,0.0,60,0.00,,,0.00,Wunderground v.1.15,2013-01-15 21:22:00,
2013-01-15 16:25:00,36.8,24.2,30.13,South,169,0.0,0.0,60,0.00,,,0.00,Wunderground v.1.15,2013-01-15 21:25:00,
2013-01-15 16:27:00,36.8,24.6,30.13,South,169,0.0,0.0,61,0.00,,,0.00,Wunderground v.1.15,2013-01-15 21:27:00,
2013-01-15 16:28:00,36.7,24.9,30.13,South,169,0.0,0.0,62,0.00,,,0.00,Wunderground v.1.15,2013-01-15 21:28:00,
2013-01-15 16:30:00,36.6,24.8,30.13,South,169,0.0,0.0,62,0.00,,,0.00,Wunderground v.1.15,2013-01-15 21:30:00,
2013-01-15 16:33:00,36.5,24.3,30.13,South,169,0.0,0.0,61,0.00,,,0.00,Wunderground v.1.15,2013-01-15 21:33:00,
2013-01-15 16:34:00,36.4,24.6,30.13,SSW,193,0.0,0.0,62,0.00,,,0.00,Wunderground v.1.15,2013-01-15 21:34:00,
2013-01-15 16:38:00,36.3,24.1,30.14,WNW,297,0.0,2.0,61,0.00,,,0.00,Wunderground v.1.15,2013-01-15 21:38:00,
2013-01-15 16:39:00,36.2,24.0,30.14,WNW,297,1.0,2.0,61,0.00,,,0.00,Wunderground v.1.15,2013-01-15 21:39:00,
2013-01-15 16:40:00,36.2,24.0,30.14,NW,304,1.0,1.0,61,0.00,,,0.00,Wunderground v.1.15,2013-01-15 21:40:00,
2013-01-15 16:41:00,36.1,23.9,30.14,West,269,1.0,4.0,61,0.00,,,0.00,Wunderground v.1.15,2013-01-15 21:41:00,
2013-01-15 16:45:00,36.0,23.8,30.14,West,277,3.0,7.0,61,0.00,,,0.00,Wunderground v.1.15,2013-01-15 21:45:00,
2013-01-15 16:48:00,35.8,24.0,30.14,WNW,285,3.0,7.0,62,0.00,,,0.00,Wunderground v.1.15,2013-01-15 21:48:00,
2013-01-15 16:49:00,35.8,24.0,30.14,WNW,300,4.0,7.0,62,0.00,,,0.00,Wunderground v.1.15,2013-01-15 21:49:00,
2013-01-15 16:51:00,35.7,23.6,30.14,WNW,301,4.0,4.0,61,0.00,,,0.00,Wunderground v.1.15,2013-01-15 21:51:00,
2013-01-15 16:53:00,35.6,23.9,30.14,WNW,286,4.0,4.0,62,0.00,,,0.00,Wunderground v.1.15,2013-01-15 21:53:00,
2013-01-15 16:56:00,35.4,23.7,30.14,WNW,300,4.0,6.0,62,0.00,,,0.00,Wunderground v.1.15,2013-01-15 21:56:00,
2013-01-15 16:58:00,35.4,23.7,30.14,WNW,301,4.0,6.0,62,0.00,,,0.00,Wunderground v.1.15,2013-01-15 21:58:00,
2013-01-15 17:02:00,35.3,23.6,30.14,West,263,3.0,8.0,62,0.00,,,0.00,Wunderground v.1.15,2013-01-15 22:02:00,
2013-01-15 17:04:00,35.3,24.0,30.14,WNW,295,3.0,8.0,63,0.00,,,0.00,Wunderground v.1.15,2013-01-15 22:04:00,
2013-01-15 17:06:00,35.2,23.9,30.14,West,279,3.0,8.0,63,0.00,,,0.00,Wunderground v.1.15,2013-01-15 22:06:00,
2013-01-15 17:09:00,35.2,23.5,30.14,NW,311,3.0,8.0,62,0.00,,,0.00,Wunderground v.1.15,2013-01-15 22:09:00,
2013-01-15 17:11:00,35.2,23.5,30.14,West,280,4.0,8.0,62,0.00,,,0.00,Wunderground v.1.15,2013-01-15 22:11:00,
2013-01-15 17:12:00,35.1,23.8,30.14,WNW,287,4.0,8.0,63,0.00,,,0.00,Wunderground v.1.15,2013-01-15 22:12:00,
2013-01-15 17:13:00,35.1,23.8,30.14,WNW,293,4.0,8.0,63,0.00,,,0.00,Wunderground v.1.15,2013-01-15 22:13:00,
2013-01-15 17:16:00,35.0,23.7,30.14,WNW,299,4.0,8.0,63,0.00,,,0.00,Wunderground v.1.15,2013-01-15 22:16:00,
2013-01-15 17:19:00,34.9,23.9,30.14,West,275,4.0,8.0,64,0.00,,,0.00,Wunderground v.1.15,2013-01-15 22:19:00,
2013-01-15 17:20:00,34.8,23.5,30.14,West,278,4.0,8.0,63,0.00,,,0.00,Wunderground v.1.15,2013-01-15 22:20:00,
2013-01-15 17:21:00,34.8,23.5,30.14,West,273,4.0,8.0,63,0.00,,,0.00,Wunderground v.1.15,2013-01-15 22:21:00,
2013-01-15 17:24:00,34.8,23.9,30.14,WNW,290,3.0,8.0,64,0.00,,,0.00,Wunderground v.1.15,2013-01-15 22:24:00,
2013-01-15 17:26:00,34.7,23.8,30.14,West,274,3.0,8.0,64,0.00,,,0.00,Wunderground v.1.15,2013-01-15 22:26:00,
2013-01-15 17:27:00,34.7,23.8,30.14,West,278,3.0,8.0,64,0.00,,,0.00,Wunderground v.1.15,2013-01-15 22:27:00,
2013-01-15 17:30:00,34.6,24.0,30.14,West,281,3.0,8.0,65,0.00,,,0.00,Wunderground v.1.15,2013-01-15 22:30:00,
2013-01-15 17:31:00,34.6,24.0,30.14,WNW,292,3.0,8.0,65,0.00,,,0.00,Wunderground v.1.15,2013-01-15 22:31:00,
2013-01-15 17:32:00,34.5,23.9,30.14,WNW,290,3.0,8.0,65,0.00,,,0.00,Wunderground v.1.15,2013-01-15 22:32:00,
2013-01-15 17:34:00,34.4,23.8,30.14,WNW,286,2.0,8.0,65,0.00,,,0.00,Wunderground v.1.15,2013-01-15 22:34:00,
2013-01-15 17:37:00,34.3,23.7,30.14,NW,311,3.0,8.0,65,0.00,,,0.00,Wunderground v.1.15,2013-01-15 22:37:00,
2013-01-15 17:38:00,34.3,23.7,30.14,WNW,285,3.0,8.0,65,0.00,,,0.00,Wunderground v.1.15,2013-01-15 22:38:00,
2013-01-15 17:40:00,34.3,23.7,30.14,WNW,285,3.0,8.0,65,0.00,,,0.00,Wunderground v.1.15,2013-01-15 22:40:00,
2013-01-15 17:41:00,34.3,23.7,30.14,WNW,300,3.0,8.0,65,0.00,,,0.00,Wunderground v.1.15,2013-01-15 22:41:00,
2013-01-15 17:46:00,34.2,23.7,30.14,WNW,300,2.0,8.0,65,0.00,,,0.00,Wunderground v.1.15,2013-01-15 22:46:00,
2013-01-15 17:47:00,34.2,23.7,30.14,WNW,300,2.0,8.0,65,0.00,,,0.00,Wunderground v.1.15,2013-01-15 22:47:00,
2013-01-15 17:51:00,34.1,23.9,30.14,WNW,297,1.0,8.0,66,0.00,,,0.00,Wunderground v.1.15,2013-01-15 22:51:00,
2013-01-15 17:52:00,34.0,23.8,30.15,WNW,297,1.0,8.0,66,0.00,,,0.00,Wunderground v.1.15,2013-01-15 22:52:00,
2013-01-15 17:54:00,33.9,23.7,30.15,WNW,287,1.0,8.0,66,0.00,,,0.00,Wunderground v.1.15,2013-01-15 22:54:00,
2013-01-15 17:57:00,33.9,23.7,30.15,NW,307,1.0,8.0,66,0.00,,,0.00,Wunderground v.1.15,2013-01-15 22:57:00,
2013-01-15 17:59:00,33.9,23.7,30.15,NW,307,1.0,8.0,66,0.00,,,0.00,Wunderground v.1.15,2013-01-15 22:59:00,
2013-01-15 18:00:00,33.9,24.1,30.16,NW,307,1.0,1.0,67,0.00,,,0.00,Wunderground v.1.15,2013-01-15 23:00:00,
2013-01-15 18:03:00,33.8,24.0,30.16,NW,313,1.0,6.0,67,0.00,,,0.00,Wunderground v.1.15,2013-01-15 23:03:00,
2013-01-15 18:04:00,33.8,24.0,30.16,NW,313,1.0,6.0,67,0.00,,,0.00,Wunderground v.1.15,2013-01-15 23:04:00,
2013-01-15 18:09:00,33.7,23.9,30.15,NW,313,0.0,6.0,67,0.00,,,0.00,Wunderground v.1.15,2013-01-15 23:09:00,
2013-01-15 18:10:00,33.7,23.9,30.15,NW,323,0.0,6.0,67,0.00,,,0.00,Wunderground v.1.15,2013-01-15 23:10:00,
2013-01-15 18:12:00,33.7,23.9,30.15,NW,323,0.0,6.0,67,0.00,,,0.00,Wunderground v.1.15,2013-01-15 23:12:00,
2013-01-15 18:14:00,33.7,23.9,30.15,NW,323,0.0,6.0,67,0.00,,,0.00,Wunderground v.1.15,2013-01-15 23:14:00,
2013-01-15 18:18:00,33.6,23.8,30.15,NW,323,0.0,6.0,67,0.00,,,0.00,Wunderground v.1.15,2013-01-15 23:18:00,
2013-01-15 18:19:00,33.6,23.8,30.15,NW,323,0.0,6.0,67,0.00,,,0.00,Wunderground v.1.15,2013-01-15 23:19:00,
2013-01-15 18:21:00,33.6,23.8,30.15,NW,323,0.0,6.0,67,0.00,,,0.00,Wunderground v.1.15,2013-01-15 23:21:00,
2013-01-15 18:23:00,33.5,23.7,30.16,NW,323,0.0,6.0,67,0.00,,,0.00,Wunderground v.1.15,2013-01-15 23:23:00,
2013-01-15 18:26:00,33.5,23.7,30.16,NW,323,0.0,6.0,67,0.00,,,0.00,Wunderground v.1.15,2013-01-15 23:26:00,
2013-01-15 18:27:00,33.5,23.7,30.15,NW,323,0.0,6.0,67,0.00,,,0.00,Wunderground v.1.15,2013-01-15 23:27:00,
2013-01-15 18:29:00,33.5,23.7,30.15,NW,323,0.0,6.0,67,0.00,,,0.00,Wunderground v.1.15,2013-01-15 23:29:00,
2013-01-15 18:30:00,33.5,23.7,30.15,NW,323,0.0,6.0,67,0.00,,,0.00,Wunderground v.1.15,2013-01-15 23:30:00,
2013-01-15 18:32:00,33.5,24.1,30.15,NW,323,0.0,6.0,68,0.00,,,0.00,Wunderground v.1.15,2013-01-15 23:32:00,
2013-01-15 18:35:00,33.4,24.0,30.16,NW,323,0.0,6.0,68,0.00,,,0.00,Wunderground v.1.15,2013-01-15 23:35:00,
2013-01-15 18:36:00,33.4,24.0,30.16,NW,323,0.0,6.0,68,0.00,,,0.00,Wunderground v.1.15,2013-01-15 23:36:00,
2013-01-15 18:38:00,33.3,23.9,30.16,NW,323,0.0,6.0,68,0.00,,,0.00,Wunderground v.1.15,2013-01-15 23:38:00,
2013-01-15 18:40:00,33.3,23.9,30.16,NW,323,0.0,6.0,68,0.00,,,0.00,Wunderground v.1.15,2013-01-15 23:40:00,
2013-01-15 18:42:00,33.3,23.9,30.15,NW,323,0.0,6.0,68,0.00,,,0.00,Wunderground v.1.15,2013-01-15 23:42:00,
2013-01-15 18:45:00,33.2,23.8,30.15,NW,323,0.0,6.0,68,0.00,,,0.00,Wunderground v.1.15,2013-01-15 23:45:00,
2013-01-15 18:46:00,33.2,23.8,30.15,NW,323,0.0,6.0,68,0.00,,,0.00,Wunderground v.1.15,2013-01-15 23:46:00,
2013-01-15 18:47:00,33.2,23.8,30.15,NW,323,0.0,6.0,68,0.00,,,0.00,Wunderground v.1.15,2013-01-15 23:47:00,
2013-01-15 18:51:00,33.1,24.0,30.15,NW,323,0.0,6.0,69,0.00,,,0.00,Wunderground v.1.15,2013-01-15 23:51:00,
2013-01-15 18:52:00,33.1,24.0,30.15,NW,323,0.0,6.0,69,0.00,,,0.00,Wunderground v.1.15,2013-01-15 23:52:00,
2013-01-15 18:53:00,33.1,24.0,30.15,NW,323,0.0,6.0,69,0.00,,,0.00,Wunderground v.1.15,2013-01-15 23:53:00,
2013-01-15 18:55:00,33.0,23.9,30.15,NW,323,0.0,6.0,69,0.00,,,0.00,Wunderground v.1.15,2013-01-15 23:55:00,
2013-01-15 18:58:00,33.0,23.9,30.15,NW,323,0.0,6.0,69,0.00,,,0.00,Wunderground v.1.15,2013-01-15 23:58:00,
2013-01-15 19:00:00,32.9,24.2,30.15,NW,323,0.0,0.0,70,0.00,,,0.00,Wunderground v.1.15,2013-01-16 00:00:00,
2013-01-15 19:01:00,32.9,24.2,30.15,NW,323,0.0,0.0,70,0.00,,,0.00,Wunderground v.1.15,2013-01-16 00:01:00,
2013-01-15 19:02:00,32.9,24.2,30.15,NW,323,0.0,0.0,70,0.00,,,0.00,Wunderground v.1.15,2013-01-16 00:02:00,
2013-01-15 19:06:00,32.8,24.1,30.15,NW,323,0.0,0.0,70,0.00,,,0.00,Wunderground v.1.15,2013-01-16 00:06:00,
2013-01-15 19:07:00,32.8,24.1,30.15,NW,323,0.0,0.0,70,0.00,,,0.00,Wunderground v.1.15,2013-01-16 00:07:00,
2013-01-15 19:12:00,32.7,24.0,30.15,NW,323,0.0,0.0,70,0.00,,,0.00,Wunderground v.1.15,2013-01-16 00:12:00,
2013-01-15 19:13:00,32.7,24.0,30.15,NW,323,0.0,0.0,70,0.00,,,0.00,Wunderground v.1.15,2013-01-16 00:13:00,
2013-01-15 19:14:00,32.7,24.0,30.14,NW,323,0.0,0.0,70,0.00,,,0.00,Wunderground v.1.15,2013-01-16 00:14:00,
2013-01-15 19:18:00,32.6,23.9,30.14,NW,323,0.0,0.0,70,0.00,,,0.00,Wunderground v.1.15,2013-01-16 00:18:00,
2013-01-15 19:19:00,32.6,24.2,30.14,NW,323,0.0,0.0,71,0.00,,,0.00,Wunderground v.1.15,2013-01-16 00:19:00,
2013-01-15 19:20:00,32.6,24.2,30.14,NW,323,0.0,0.0,71,0.00,,,0.00,Wunderground v.1.15,2013-01-16 00:20:00,
2013-01-15 19:22:00,32.5,24.1,30.14,NW,323,0.0,0.0,71,0.00,,,0.00,Wunderground v.1.15,2013-01-16 00:22:00,
2013-01-15 19:25:00,32.3,24.3,30.14,NW,323,0.0,0.0,72,0.00,,,0.00,Wunderground v.1.15,2013-01-16 00:25:00,
2013-01-15 19:27:00,32.2,24.2,30.14,NW,323,0.0,0.0,72,0.00,,,0.00,Wunderground v.1.15,2013-01-16 00:27:00,
2013-01-15 19:30:00,32.2,24.5,30.14,NW,323,0.0,0.0,73,0.00,,,0.00,Wunderground v.1.15,2013-01-16 00:30:00,
2013-01-15 19:31:00,32.1,24.4,30.14,NW,323,0.0,0.0,73,0.00,,,0.00,Wunderground v.1.15,2013-01-16 00:31:00,
2013-01-15 19:34:00,31.9,24.6,30.14,NW,323,0.0,0.0,74,0.00,,,0.00,Wunderground v.1.15,2013-01-16 00:34:00,
2013-01-15 19:35:00,31.9,24.6,30.14,NW,323,0.0,0.0,74,0.00,,,0.00,Wunderground v.1.15,2013-01-16 00:35:00,
2013-01-15 19:37:00,31.7,24.4,30.14,NW,323,0.0,0.0,74,0.00,,,0.00,Wunderground v.1.15,2013-01-16 00:37:00,
2013-01-15 19:40:00,31.6,23.9,30.14,NW,323,0.0,0.0,73,0.00,,,0.00,Wunderground v.1.15,2013-01-16 00:40:00,
2013-01-15 19:41:00,31.6,23.9,30.14,NW,323,0.0,0.0,73,0.00,,,0.00,Wunderground v.1.15,2013-01-16 00:41:00,
2013-01-15 19:46:00,31.8,23.8,30.14,NW,323,0.0,0.0,72,0.00,,,0.00,Wunderground v.1.15,2013-01-16 00:46:00,
2013-01-15 19:47:00,31.8,23.8,30.14,NW,323,0.0,0.0,72,0.00,,,0.00,Wunderground v.1.15,2013-01-16 00:47:00,
2013-01-15 19:48:00,31.8,24.1,30.14,NW,323,0.0,0.0,73,0.00,,,0.00,Wunderground v.1.15,2013-01-16 00:48:00,
2013-01-15 19:51:00,31.8,24.1,30.14,NW,323,0.0,0.0,73,0.00,,,0.00,Wunderground v.1.15,2013-01-16 00:51:00,
2013-01-15 19:52:00,31.9,24.2,30.14,NW,323,0.0,0.0,73,0.00,,,0.00,Wunderground v.1.15,2013-01-16 00:52:00,
2013-01-15 19:55:00,31.9,24.2,30.14,NW,323,0.0,0.0,73,0.00,,,0.00,Wunderground v.1.15,2013-01-16 00:55:00,
2013-01-15 19:58:00,31.8,24.5,30.15,NW,323,0.0,0.0,74,0.00,,,0.00,Wunderground v.1.15,2013-01-16 00:58:00,
2013-01-15 19:59:00,31.8,24.5,30.14,NW,323,0.0,0.0,74,0.00,,,0.00,Wunderground v.1.15,2013-01-16 00:59:00,
2013-01-15 20:00:00,31.8,24.5,30.14,NW,323,0.0,0.0,74,0.00,,,0.00,Wunderground v.1.15,2013-01-16 01:00:00,
2013-01-15 20:02:00,31.8,24.5,30.15,NW,323,0.0,0.0,74,0.00,,,0.00,Wunderground v.1.15,2013-01-16 01:02:00,
2013-01-15 20:04:00,31.8,24.5,30.15,NW,323,0.0,0.0,74,0.00,,,0.00,Wunderground v.1.15,2013-01-16 01:04:00,
2013-01-15 20:08:00,31.8,24.8,30.14,NW,323,0.0,0.0,75,0.00,,,0.00,Wunderground v.1.15,2013-01-16 01:08:00,
2013-01-15 20:09:00,31.7,24.7,30.14,NW,323,0.0,0.0,75,0.00,,,0.00,Wunderground v.1.15,2013-01-16 01:09:00,
2013-01-15 20:10:00,31.7,24.7,30.14,NW,323,0.0,0.0,75,0.00,,,0.00,Wunderground v.1.15,2013-01-16 01:10:00,
2013-01-15 20:11:00,31.7,24.7,30.14,NW,323,0.0,0.0,75,0.00,,,0.00,Wunderground v.1.15,2013-01-16 01:11:00,
2013-01-15 20:15:00,31.7,24.7,30.14,NW,323,0.0,0.0,75,0.00,,,0.00,Wunderground v.1.15,2013-01-16 01:15:00,
2013-01-15 20:17:00,31.7,25.0,30.14,NW,323,0.0,0.0,76,0.00,,,0.00,Wunderground v.1.15,2013-01-16 01:17:00,
2013-01-15 20:19:00,31.6,24.9,30.14,NW,323,0.0,0.0,76,0.00,,,0.00,Wunderground v.1.15,2013-01-16 01:19:00,
2013-01-15 20:23:00,31.3,24.6,30.14,NW,323,0.0,0.0,76,0.00,,,0.00,Wunderground v.1.15,2013-01-16 01:23:00,
2013-01-15 20:27:00,31.1,24.7,30.14,NW,323,0.0,0.0,77,0.00,,,0.00,Wunderground v.1.15,2013-01-16 01:27:00,
2013-01-15 20:28:00,31.1,24.7,30.14,NW,323,0.0,0.0,77,0.00,,,0.00,Wunderground v.1.15,2013-01-16 01:28:00,
2013-01-15 20:30:00,31.1,24.7,30.14,NW,323,0.0,0.0,77,0.00,,,0.00,Wunderground v.1.15,2013-01-16 01:30:00,
2013-01-15 20:34:00,31.0,24.6,30.13,NW,323,0.0,0.0,77,0.00,,,0.00,Wunderground v.1.15,2013-01-16 01:34:00,
2013-01-15 20:35:00,31.0,24.6,30.13,NW,323,0.0,0.0,77,0.00,,,0.00,Wunderground v.1.15,2013-01-16 01:35:00,
2013-01-15 20:38:00,30.9,24.8,30.13,NW,323,0.0,0.0,78,0.00,,,0.00,Wunderground v.1.15,2013-01-16 01:38:00,
2013-01-15 20:40:00,30.8,24.7,30.13,NW,323,0.0,0.0,78,0.00,,,0.00,Wunderground v.1.15,2013-01-16 01:40:00,
2013-01-15 20:41:00,30.8,24.7,30.13,NW,323,0.0,0.0,78,0.00,,,0.00,Wunderground v.1.15,2013-01-16 01:41:00,
2013-01-15 20:44:00,30.7,24.7,30.14,NW,323,0.0,0.0,78,0.00,,,0.00,Wunderground v.1.15,2013-01-16 01:44:00,
2013-01-15 20:45:00,30.7,24.7,30.14,NW,323,0.0,0.0,78,0.00,,,0.00,Wunderground v.1.15,2013-01-16 01:45:00,
2013-01-15 20:47:00,30.6,24.9,30.14,NW,323,0.0,0.0,79,0.00,,,0.00,Wunderground v.1.15,2013-01-16 01:47:00,
2013-01-15 20:49:00,30.6,24.6,30.14,NW,323,0.0,0.0,78,0.00,,,0.00,Wunderground v.1.15,2013-01-16 01:49:00,
2013-01-15 20:50:00,30.6,24.9,30.14,NW,323,0.0,0.0,79,0.00,,,0.00,Wunderground v.1.15,2013-01-16 01:50:00,
2013-01-15 20:53:00,30.5,24.8,30.14,NW,323,0.0,0.0,79,0.00,,,0.00,Wunderground v.1.15,2013-01-16 01:53:00,
2013-01-15 20:54:00,30.5,24.8,30.14,NW,323,0.0,0.0,79,0.00,,,0.00,Wunderground v.1.15,2013-01-16 01:54:00,
2013-01-15 20:55:00,30.4,24.7,30.14,NW,323,0.0,0.0,79,0.00,,,0.00,Wunderground v.1.15,2013-01-16 01:55:00,
2013-01-15 20:56:00,30.4,24.7,30.14,NW,323,0.0,0.0,79,0.00,,,0.00,Wunderground v.1.15,2013-01-16 01:56:00,
2013-01-15 21:00:00,30.2,24.5,30.15,NW,323,0.0,0.0,79,0.00,,,0.00,Wunderground v.1.15,2013-01-16 02:00:00,
2013-01-15 21:03:00,30.1,24.7,30.15,NW,323,0.0,0.0,80,0.00,,,0.00,Wunderground v.1.15,2013-01-16 02:03:00,
2013-01-15 21:04:00,30.1,24.7,30.15,NW,323,0.0,0.0,80,0.00,,,0.00,Wunderground v.1.15,2013-01-16 02:04:00,
2013-01-15 21:06:00,30.0,24.9,30.14,NW,323,0.0,0.0,81,0.00,,,0.00,Wunderground v.1.15,2013-01-16 02:06:00,
2013-01-15 21:09:00,30.1,25.0,30.14,NW,323,0.0,0.0,81,0.00,,,0.00,Wunderground v.1.15,2013-01-16 02:09:00,
2013-01-15 21:10:00,30.1,25.0,30.14,NW,323,0.0,0.0,81,0.00,,,0.00,Wunderground v.1.15,2013-01-16 02:10:00,
2013-01-15 21:12:00,30.1,25.0,30.13,NW,323,0.0,0.0,81,0.00,,,0.00,Wunderground v.1.15,2013-01-16 02:12:00,
2013-01-15 21:15:00,30.1,25.0,30.13,NW,323,0.0,0.0,81,0.00,,,0.00,Wunderground v.1.15,2013-01-16 02:15:00,
2013-01-15 21:16:00,30.1,25.0,30.13,NW,323,0.0,0.0,81,0.00,,,0.00,Wunderground v.1.15,2013-01-16 02:16:00,
2013-01-15 21:18:00,30.1,25.0,30.13,NW,323,0.0,0.0,81,0.00,,,0.00,Wunderground v.1.15,2013-01-16 02:18:00,
2013-01-15 21:20:00,30.1,25.0,30.13,NW,323,0.0,0.0,81,0.00,,,0.00,Wunderground v.1.15,2013-01-16 02:20:00,
2013-01-15 21:23:00,30.1,25.0,30.13,NW,323,0.0,0.0,81,0.00,,,0.00,Wunderground v.1.15,2013-01-16 02:23:00,
2013-01-15 21:26:00,30.1,25.0,30.13,NW,323,0.0,0.0,81,0.00,,,0.00,Wunderground v.1.15,2013-01-16 02:26:00,
2013-01-15 21:27:00,30.1,25.0,30.13,NW,323,0.0,0.0,81,0.00,,,0.00,Wunderground v.1.15,2013-01-16 02:27:00,
2013-01-15 21:30:00,30.0,24.9,30.13,NW,323,0.0,0.0,81,0.00,,,0.00,Wunderground v.1.15,2013-01-16 02:30:00,
2013-01-15 21:32:00,30.0,24.9,30.12,NW,323,0.0,0.0,81,0.00,,,0.00,Wunderground v.1.15,2013-01-16 02:32:00,
2013-01-15 21:34:00,30.0,24.9,30.13,NW,323,0.0,0.0,81,0.00,,,0.00,Wunderground v.1.15,2013-01-16 02:34:00,
2013-01-15 21:36:00,30.0,24.9,30.12,NW,323,0.0,0.0,81,0.00,,,0.00,Wunderground v.1.15,2013-01-16 02:36:00,
2013-01-15 21:37:00,30.0,24.9,30.13,NW,323,0.0,1.0,81,0.00,,,0.00,Wunderground v.1.15,2013-01-16 02:37:00,
2013-01-15 21:38:00,30.0,24.9,30.12,NW,323,0.0,1.0,81,0.00,,,0.00,Wunderground v.1.15,2013-01-16 02:38:00,
2013-01-15 21:41:00,30.0,24.9,30.12,NW,323,0.0,0.0,81,0.00,,,0.00,Wunderground v.1.15,2013-01-16 02:41:00,
2013-01-15 21:43:00,29.9,24.8,30.12,NW,323,0.0,0.0,81,0.00,,,0.00,Wunderground v.1.15,2013-01-16 02:43:00,
2013-01-15 21:45:00,29.8,25.0,30.12,NW,323,0.0,1.0,82,0.00,,,0.00,Wunderground v.1.15,2013-01-16 02:45:00,
2013-01-15 21:47:00,29.7,25.2,30.12,NW,323,0.0,1.0,83,0.00,,,0.00,Wunderground v.1.15,2013-01-16 02:47:00,
2013-01-15 21:49:00,29.7,25.2,30.12,NW,323,0.0,1.0,83,0.00,,,0.00,Wunderground v.1.15,2013-01-16 02:49:00,
2013-01-15 21:52:00,29.7,25.2,30.12,NW,323,0.0,0.0,83,0.00,,,0.00,Wunderground v.1.15,2013-01-16 02:52:00,
2013-01-15 21:53:00,29.7,25.2,30.12,NW,323,0.0,0.0,83,0.00,,,0.00,Wunderground v.1.15,2013-01-16 02:53:00,
2013-01-15 21:58:00,29.6,25.1,30.11,NW,323,0.0,0.0,83,0.00,,,0.00,Wunderground v.1.15,2013-01-16 02:58:00,
2013-01-15 21:59:00,29.6,25.1,30.11,NW,323,0.0,0.0,83,0.00,,,0.00,Wunderground v.1.15,2013-01-16 02:59:00,
2013-01-15 22:04:00,29.6,25.1,30.11,NW,323,0.0,2.0,83,0.00,,,0.00,Wunderground v.1.15,2013-01-16 03:04:00,
2013-01-15 22:05:00,29.6,25.1,30.12,NW,323,0.0,2.0,83,0.00,,,0.00,Wunderground v.1.15,2013-01-16 03:05:00,
2013-01-15 22:06:00,29.6,25.1,30.12,NW,323,0.0,2.0,83,0.00,,,0.00,Wunderground v.1.15,2013-01-16 03:06:00,
2013-01-15 22:07:00,29.6,25.1,30.11,NW,323,0.0,2.0,83,0.00,,,0.00,Wunderground v.1.15,2013-01-16 03:07:00,
2013-01-15 22:11:00,29.6,25.1,30.11,NW,323,0.0,2.0,83,0.00,,,0.00,Wunderground v.1.15,2013-01-16 03:11:00,
2013-01-15 22:12:00,29.6,25.1,30.11,NW,323,0.0,2.0,83,0.00,,,0.00,Wunderground v.1.15,2013-01-16 03:12:00,
2013-01-15 22:16:00,29.6,25.1,30.12,NW,323,0.0,2.0,83,0.00,,,0.00,Wunderground v.1.15,2013-01-16 03:16:00,
2013-01-15 22:18:00,29.6,25.1,30.12,NW,323,0.0,2.0,83,0.00,,,0.00,Wunderground v.1.15,2013-01-16 03:18:00,
2013-01-15 22:21:00,29.6,25.1,30.11,NW,323,0.0,2.0,83,0.00,,,0.00,Wunderground v.1.15,2013-01-16 03:21:00,
2013-01-15 22:24:00,29.6,25.1,30.11,NW,323,0.0,2.0,83,0.00,,,0.00,Wunderground v.1.15,2013-01-16 03:24:00,
2013-01-15 22:25:00,29.6,25.1,30.12,NW,323,0.0,2.0,83,0.00,,,0.00,Wunderground v.1.15,2013-01-16 03:25:00,
2013-01-15 22:28:00,29.6,25.1,30.12,NW,323,0.0,2.0,83,0.00,,,0.00,Wunderground v.1.15,2013-01-16 03:28:00,
2013-01-15 22:29:00,29.6,25.1,30.12,NW,323,0.0,2.0,83,0.00,,,0.00,Wunderground v.1.15,2013-01-16 03:29:00,
2013-01-15 22:31:00,29.6,25.1,30.12,NW,323,0.0,2.0,83,0.00,,,0.00,Wunderground v.1.15,2013-01-16 03:31:00,
2013-01-15 22:34:00,29.6,25.1,30.12,NW,323,0.0,2.0,83,0.00,,,0.00,Wunderground v.1.15,2013-01-16 03:34:00,
2013-01-15 22:39:00,29.6,25.1,30.12,NW,323,0.0,2.0,83,0.00,,,0.00,Wunderground v.1.15,2013-01-16 03:39:00,
2013-01-15 22:41:00,29.5,25.0,30.12,NW,323,0.0,2.0,83,0.00,,,0.00,Wunderground v.1.15,2013-01-16 03:41:00,
2013-01-15 22:44:00,29.5,25.0,30.12,NW,323,0.0,2.0,83,0.00,,,0.00,Wunderground v.1.15,2013-01-16 03:44:00,
2013-01-15 22:46:00,29.5,25.0,30.12,NW,323,0.0,2.0,83,0.00,,,0.00,Wunderground v.1.15,2013-01-16 03:46:00,
2013-01-15 22:49:00,29.4,24.9,30.13,NW,323,0.0,2.0,83,0.00,,,0.00,Wunderground v.1.15,2013-01-16 03:49:00,
2013-01-15 22:52:00,29.4,24.9,30.13,NW,323,0.0,2.0,83,0.00,,,0.00,Wunderground v.1.15,2013-01-16 03:52:00,
2013-01-15 22:53:00,29.4,24.9,30.12,NW,323,0.0,2.0,83,0.00,,,0.00,Wunderground v.1.15,2013-01-16 03:53:00,
2013-01-15 22:54:00,29.4,24.9,30.12,NW,323,0.0,2.0,83,0.00,,,0.00,Wunderground v.1.15,2013-01-16 03:54:00,
2013-01-15 22:58:00,29.5,25.0,30.12,SSE,151,1.0,6.0,83,0.00,,,0.00,Wunderground v.1.15,2013-01-16 03:58:00,
2013-01-15 23:01:00,29.3,25.1,30.12,SSE,156,3.0,5.0,84,0.00,,,0.00,Wunderground v.1.15,2013-01-16 04:01:00,
2013-01-15 23:03:00,29.1,24.9,30.12,SSE,156,4.0,5.0,84,0.00,,,0.00,Wunderground v.1.15,2013-01-16 04:03:00,
2013-01-15 23:06:00,29.0,25.1,30.12,SSE,156,5.0,5.0,85,0.00,,,0.00,Wunderground v.1.15,2013-01-16 04:06:00,
2013-01-15 23:07:00,29.0,25.1,30.12,SSE,156,5.0,5.0,85,0.00,,,0.00,Wunderground v.1.15,2013-01-16 04:07:00,
2013-01-15 23:11:00,28.9,25.2,30.11,SSE,156,3.0,3.0,86,0.00,,,0.00,Wunderground v.1.15,2013-01-16 04:11:00,
2013-01-15 23:12:00,28.9,25.2,30.11,SSE,156,2.0,3.0,86,0.00,,,0.00,Wunderground v.1.15,2013-01-16 04:12:00,
2013-01-15 23:13:00,28.9,25.2,30.11,SSE,156,2.0,3.0,86,0.00,,,0.00,Wunderground v.1.15,2013-01-16 04:13:00,
2013-01-15 23:15:00,28.9,25.2,30.11,SSE,156,1.0,3.0,86,0.00,,,0.00,Wunderground v.1.15,2013-01-16 04:15:00,
2013-01-15 23:19:00,28.9,25.5,30.12,SSE,156,0.0,3.0,87,0.00,,,0.00,Wunderground v.1.15,2013-01-16 04:19:00,
2013-01-15 23:22:00,28.9,25.5,30.11,SSE,156,0.0,2.0,87,0.00,,,0.00,Wunderground v.1.15,2013-01-16 04:22:00,
2013-01-15 23:23:00,28.9,25.5,30.11,SSE,156,0.0,2.0,87,0.00,,,0.00,Wunderground v.1.15,2013-01-16 04:23:00,
2013-01-15 23:24:00,28.9,25.5,30.11,SSE,156,0.0,2.0,87,0.00,,,0.00,Wunderground v.1.15,2013-01-16 04:24:00,
2013-01-15 23:27:00,28.9,25.5,30.11,SSE,156,0.0,2.0,87,0.00,,,0.00,Wunderground v.1.15,2013-01-16 04:27:00,
2013-01-15 23:30:00,28.9,25.5,30.11,SSE,156,0.0,1.0,87,0.00,,,0.00,Wunderground v.1.15,2013-01-16 04:30:00,
2013-01-15 23:31:00,28.9,25.5,30.10,SSE,156,0.0,1.0,87,0.00,,,0.00,Wunderground v.1.15,2013-01-16 04:31:00,
2013-01-15 23:32:00,28.9,25.5,30.10,SSE,156,0.0,1.0,87,0.00,,,0.00,Wunderground v.1.15,2013-01-16 04:32:00,
2013-01-15 23:35:00,28.9,25.5,30.10,SSE,156,0.0,1.0,87,0.00,,,0.00,Wunderground v.1.15,2013-01-16 04:35:00,
2013-01-15 23:39:00,28.9,25.5,30.10,SSE,156,0.0,1.0,87,0.00,,,0.00,Wunderground v.1.15,2013-01-16 04:39:00,
2013-01-15 23:40:00,28.9,25.5,30.10,SSE,156,0.0,1.0,87,0.00,,,0.00,Wunderground v.1.15,2013-01-16 04:40:00,
2013-01-15 23:44:00,28.9,25.5,30.10,SSE,156,0.0,1.0,87,0.00,,,0.00,Wunderground v.1.15,2013-01-16 04:44:00,
2013-01-15 23:45:00,28.9,25.5,30.10,SSE,156,0.0,1.0,87,0.00,,,0.00,Wunderground v.1.15,2013-01-16 04:45:00,
2013-01-15 23:46:00,28.9,25.5,30.10,SSE,156,0.0,1.0,87,0.00,,,0.00,Wunderground v.1.15,2013-01-16 04:46:00,
2013-01-15 23:50:00,28.9,25.5,30.10,SSE,156,0.0,1.0,87,0.00,,,0.00,Wunderground v.1.15,2013-01-16 04:50:00,
2013-01-15 23:52:00,28.9,25.5,30.10,SSE,156,0.0,1.0,87,0.00,,,0.00,Wunderground v.1.15,2013-01-16 04:52:00,
2013-01-15 23:53:00,28.8,25.4,30.10,SSE,156,0.0,1.0,87,0.00,,,0.00,Wunderground v.1.15,2013-01-16 04:53:00,
2013-01-15 23:54:00,28.8,25.4,30.11,SSE,156,0.0,1.0,87,0.00,,,0.00,Wunderground v.1.15,2013-01-16 04:54:00,
2013-01-15 23:57:00,28.9,25.5,30.11,SSE,156,0.0,1.0,87,0.00,,,0.00,Wunderground v.1.15,2013-01-16 04:57:00,